Time,TemperatureF,DewpointF,PressureIn,WindDirection,WindDirectionDegrees,WindSpeedMPH,WindSpeedGustMPH,Humidity,HourlyPrecipIn,Conditions,Clouds,dailyrainin,SoftwareType,DateUTC
2013-03-03 00:03:00,48.2,15.6,30.10,SW,225,2.0,4.0,27,0.00,,,0.00,WUHU216HW,2013-03-03 07:03:00,
2013-03-03 00:04:00,48.1,15.4,30.10,SW,225,2.0,4.0,27,0.00,,,0.00,WUHU216HW,2013-03-03 07:04:00,
2013-03-03 00:08:00,47.9,15.2,30.10,SW,225,2.0,3.8,27,0.00,,,0.00,WUHU216HW,2013-03-03 07:08:00,
2013-03-03 00:09:00,47.9,15.2,30.10,SW,225,2.5,3.1,27,0.00,,,0.00,WUHU216HW,2013-03-03 07:09:00,
2013-03-03 00:13:00,47.9,15.2,30.10,SW,225,3.1,3.1,27,0.00,,,0.00,WUHU216HW,2013-03-03 07:13:00,
2013-03-03 00:14:00,47.9,15.2,30.10,SW,225,4.0,4.0,27,0.00,,,0.00,WUHU216HW,2013-03-03 07:14:00,
2013-03-03 00:18:00,47.9,15.2,30.10,WSW,248,2.7,4.0,27,0.00,,,0.00,WUHU216HW,2013-03-03 07:18:00,
2013-03-03 00:20:00,47.7,15.1,30.10,SW,225,3.4,4.0,27,0.00,,,0.00,WUHU216HW,2013-03-03 07:20:00,
2013-03-03 00:23:00,47.5,15.0,30.10,SW,225,2.7,4.0,27,0.00,,,0.00,WUHU216HW,2013-03-03 07:23:00,
2013-03-03 00:25:00,47.5,15.0,30.10,SW,225,1.8,4.0,27,0.00,,,0.00,WUHU216HW,2013-03-03 07:25:00,
2013-03-03 00:28:00,47.3,15.7,30.10,SW,225,2.5,3.4,28,0.00,,,0.00,WUHU216HW,2013-03-03 07:28:00,
2013-03-03 00:29:00,47.3,15.7,30.10,SW,225,2.5,3.4,28,0.00,,,0.00,WUHU216HW,2013-03-03 07:29:00,
2013-03-03 00:30:00,47.2,15.6,30.10,WSW,248,2.5,3.4,28,0.00,,,0.00,WUHU216HW,2013-03-03 07:30:00,
2013-03-03 00:33:00,47.2,15.6,30.10,SW,225,2.9,3.6,28,0.00,,,0.00,WUHU216HW,2013-03-03 07:33:00,
2013-03-03 00:34:00,47.2,15.6,30.10,WSW,248,2.5,3.6,28,0.00,,,0.00,WUHU216HW,2013-03-03 07:34:00,
2013-03-03 00:35:00,47.2,15.6,30.10,SW,225,2.7,3.6,28,0.00,,,0.00,WUHU216HW,2013-03-03 07:35:00,
2013-03-03 00:36:00,47.2,15.6,30.10,SW,225,2.5,3.6,28,0.00,,,0.00,WUHU216HW,2013-03-03 07:36:00,
2013-03-03 00:38:00,47.2,15.6,30.10,SW,225,2.7,3.6,28,0.00,,,0.00,WUHU216HW,2013-03-03 07:38:00,
2013-03-03 00:39:00,47.2,15.6,30.10,SW,225,3.1,3.6,28,0.00,,,0.00,WUHU216HW,2013-03-03 07:39:00,
2013-03-03 00:40:00,47.3,15.7,30.10,SW,225,2.2,3.6,28,0.00,,,0.00,WUHU216HW,2013-03-03 07:40:00,
2013-03-03 00:42:00,47.3,15.7,30.10,SSW,203,2.2,3.6,28,0.00,,,0.00,WUHU216HW,2013-03-03 07:42:00,
2013-03-03 00:43:00,47.3,15.7,30.10,SW,225,2.9,3.1,28,0.00,,,0.00,WUHU216HW,2013-03-03 07:43:00,
2013-03-03 00:44:00,47.3,15.7,30.10,SW,225,2.5,3.1,28,0.00,,,0.00,WUHU216HW,2013-03-03 07:44:00,
2013-03-03 00:45:00,47.3,15.7,30.10,SW,225,4.0,4.0,28,0.00,,,0.00,WUHU216HW,2013-03-03 07:45:00,
2013-03-03 00:47:00,47.2,15.6,30.10,WSW,248,4.0,4.7,28,0.00,,,0.00,WUHU216HW,2013-03-03 07:47:00,
2013-03-03 00:48:00,47.2,15.6,30.10,SW,225,4.0,4.7,28,0.00,,,0.00,WUHU216HW,2013-03-03 07:48:00,
2013-03-03 00:49:00,47.2,15.6,30.09,WSW,248,3.8,4.7,28,0.00,,,0.00,WUHU216HW,2013-03-03 07:49:00,
2013-03-03 00:50:00,47.2,15.6,30.10,WSW,248,4.0,4.7,28,0.00,,,0.00,WUHU216HW,2013-03-03 07:50:00,
2013-03-03 00:52:00,47.2,15.6,30.09,SW,225,3.8,4.7,28,0.00,,,0.00,WUHU216HW,2013-03-03 07:52:00,
2013-03-03 00:53:00,47.0,15.4,30.10,WSW,248,3.6,4.7,28,0.00,,,0.00,WUHU216HW,2013-03-03 07:53:00,
2013-03-03 00:54:00,47.0,15.4,30.09,WSW,248,3.8,4.7,28,0.00,,,0.00,WUHU216HW,2013-03-03 07:54:00,
2013-03-03 00:55:00,47.2,15.6,30.09,SW,225,3.4,4.7,28,0.00,,,0.00,WUHU216HW,2013-03-03 07:55:00,
2013-03-03 00:57:00,47.0,15.4,30.09,SW,225,4.7,4.9,28,0.00,,,0.00,WUHU216HW,2013-03-03 07:57:00,
2013-03-03 00:59:00,47.0,15.4,30.09,SW,225,4.5,4.9,28,0.00,,,0.00,WUHU216HW,2013-03-03 07:59:00,
2013-03-03 01:00:00,47.0,15.4,30.09,SW,225,4.0,4.9,28,0.00,,,0.00,WUHU216HW,2013-03-03 08:00:00,
2013-03-03 01:01:00,47.0,15.4,30.09,SW,225,4.0,4.9,28,0.00,,,0.00,WUHU216HW,2013-03-03 08:01:00,
2013-03-03 01:02:00,47.0,15.4,30.09,SW,225,4.7,4.9,28,0.00,,,0.00,WUHU216HW,2013-03-03 08:02:00,
2013-03-03 01:04:00,47.2,15.6,30.09,WSW,248,4.0,4.9,28,0.00,,,0.00,WUHU216HW,2013-03-03 08:04:00,
2013-03-03 01:05:00,47.2,15.6,30.09,SW,225,4.7,4.9,28,0.00,,,0.00,WUHU216HW,2013-03-03 08:05:00,
2013-03-03 01:06:00,47.2,15.6,30.09,SW,225,4.9,4.9,28,0.00,,,0.00,WUHU216HW,2013-03-03 08:06:00,
2013-03-03 01:07:00,47.2,15.6,30.09,WSW,248,4.7,4.9,28,0.00,,,0.00,WUHU216HW,2013-03-03 08:07:00,
2013-03-03 01:09:00,47.2,15.6,30.09,SW,225,5.4,5.4,28,0.00,,,0.00,WUHU216HW,2013-03-03 08:09:00,
2013-03-03 01:10:00,47.2,15.6,30.09,SW,225,4.5,5.4,28,0.00,,,0.00,WUHU216HW,2013-03-03 08:10:00,
2013-03-03 01:11:00,47.2,15.6,30.09,SW,225,3.8,5.4,28,0.00,,,0.00,WUHU216HW,2013-03-03 08:11:00,
2013-03-03 01:12:00,47.2,15.6,30.09,WSW,248,3.6,5.4,28,0.00,,,0.00,WUHU216HW,2013-03-03 08:12:00,
2013-03-03 01:14:00,47.2,15.6,30.09,SW,225,3.8,5.4,28,0.00,,,0.00,WUHU216HW,2013-03-03 08:14:00,
2013-03-03 01:15:00,47.2,15.6,30.09,WSW,248,4.7,5.4,28,0.00,,,0.00,WUHU216HW,2013-03-03 08:15:00,
2013-03-03 01:16:00,47.2,15.6,30.09,WSW,248,5.1,5.4,28,0.00,,,0.00,WUHU216HW,2013-03-03 08:16:00,
2013-03-03 01:17:00,47.3,15.7,30.09,WSW,248,4.7,5.4,28,0.00,,,0.00,WUHU216HW,2013-03-03 08:17:00,
2013-03-03 01:19:00,47.3,15.7,30.09,SW,225,3.6,5.4,28,0.00,,,0.00,WUHU216HW,2013-03-03 08:19:00,
2013-03-03 01:20:00,47.3,15.7,30.09,WSW,248,4.5,5.4,28,0.00,,,0.00,WUHU216HW,2013-03-03 08:20:00,
2013-03-03 01:21:00,47.3,15.7,30.09,SW,225,4.0,5.4,28,0.00,,,0.00,WUHU216HW,2013-03-03 08:21:00,
2013-03-03 01:22:00,47.5,15.8,30.09,WSW,248,4.0,5.4,28,0.00,,,0.00,WUHU216HW,2013-03-03 08:22:00,
2013-03-03 01:25:00,47.5,15.8,30.09,SW,225,4.9,5.4,28,0.00,,,0.00,WUHU216HW,2013-03-03 08:25:00,
2013-03-03 01:26:00,47.5,16.7,30.09,SW,225,4.5,5.4,29,0.00,,,0.00,WUHU216HW,2013-03-03 08:26:00,
2013-03-03 01:27:00,47.7,16.9,30.09,SW,225,3.8,5.4,29,0.00,,,0.00,WUHU216HW,2013-03-03 08:27:00,
2013-03-03 01:30:00,47.9,16.2,30.09,SW,225,4.0,5.4,28,0.00,,,0.00,WUHU216HW,2013-03-03 08:30:00,
2013-03-03 01:31:00,47.9,16.2,30.09,WSW,248,3.8,5.4,28,0.00,,,0.00,WUHU216HW,2013-03-03 08:31:00,
2013-03-03 01:33:00,47.9,16.2,30.09,SW,225,4.5,5.4,28,0.00,,,0.00,WUHU216HW,2013-03-03 08:33:00,
2013-03-03 01:35:00,48.1,16.3,30.08,WSW,248,3.6,5.4,28,0.00,,,0.00,WUHU216HW,2013-03-03 08:35:00,
2013-03-03 01:36:00,48.1,16.3,30.08,SW,225,3.4,4.9,28,0.00,,,0.00,WUHU216HW,2013-03-03 08:36:00,
2013-03-03 01:38:00,48.1,16.3,30.08,WSW,248,3.4,4.9,28,0.00,,,0.00,WUHU216HW,2013-03-03 08:38:00,
2013-03-03 01:40:00,48.1,16.3,30.08,SW,225,2.7,4.9,28,0.00,,,0.00,WUHU216HW,2013-03-03 08:40:00,
2013-03-03 01:41:00,48.1,16.3,30.08,SW,225,3.4,4.9,28,0.00,,,0.00,WUHU216HW,2013-03-03 08:41:00,
2013-03-03 01:43:00,48.1,16.3,30.08,SW,225,3.4,4.9,28,0.00,,,0.00,WUHU216HW,2013-03-03 08:43:00,
2013-03-03 01:46:00,48.1,16.3,30.08,SW,225,3.6,4.3,28,0.00,,,0.00,WUHU216HW,2013-03-03 08:46:00,
2013-03-03 01:47:00,48.1,16.3,30.08,SW,225,2.7,4.3,28,0.00,,,0.00,WUHU216HW,2013-03-03 08:47:00,
2013-03-03 01:48:00,48.1,16.3,30.08,SW,225,3.4,4.3,28,0.00,,,0.00,WUHU216HW,2013-03-03 08:48:00,
2013-03-03 01:51:00,47.9,16.2,30.08,WSW,248,4.0,4.3,28,0.00,,,0.00,WUHU216HW,2013-03-03 08:51:00,
2013-03-03 01:52:00,47.9,16.2,30.08,SW,225,3.4,4.3,28,0.00,,,0.00,WUHU216HW,2013-03-03 08:52:00,
2013-03-03 01:53:00,47.9,16.2,30.08,SW,225,3.8,4.3,28,0.00,,,0.00,WUHU216HW,2013-03-03 08:53:00,
2013-03-03 01:56:00,47.9,16.2,30.08,SW,225,2.9,4.3,28,0.00,,,0.00,WUHU216HW,2013-03-03 08:56:00,
2013-03-03 01:57:00,47.9,16.2,30.08,SW,225,2.5,4.3,28,0.00,,,0.00,WUHU216HW,2013-03-03 08:57:00,
2013-03-03 01:58:00,47.9,16.2,30.08,SW,225,2.5,4.3,28,0.00,,,0.00,WUHU216HW,2013-03-03 08:58:00,
2013-03-03 02:01:00,47.9,16.2,30.08,SW,225,2.2,4.3,28,0.00,,,0.00,WUHU216HW,2013-03-03 09:01:00,
2013-03-03 02:02:00,47.9,16.2,30.08,WSW,248,1.8,4.3,28,0.00,,,0.00,WUHU216HW,2013-03-03 09:02:00,
2013-03-03 02:03:00,47.9,16.2,30.08,WSW,248,2.5,4.3,28,0.00,,,0.00,WUHU216HW,2013-03-03 09:03:00,
2013-03-03 02:06:00,47.9,16.2,30.08,SW,225,3.1,3.4,28,0.00,,,0.00,WUHU216HW,2013-03-03 09:06:00,
2013-03-03 02:07:00,47.9,16.2,30.08,SW,225,2.2,3.4,28,0.00,,,0.00,WUHU216HW,2013-03-03 09:07:00,
2013-03-03 02:08:00,47.9,16.2,30.08,SW,225,4.5,4.5,28,0.00,,,0.00,WUHU216HW,2013-03-03 09:08:00,
2013-03-03 02:11:00,47.9,16.2,30.07,SW,225,2.5,4.5,28,0.00,,,0.00,WUHU216HW,2013-03-03 09:11:00,
2013-03-03 02:12:00,47.9,16.2,30.07,SW,225,2.9,4.5,28,0.00,,,0.00,WUHU216HW,2013-03-03 09:12:00,
2013-03-03 02:13:00,47.9,16.2,30.07,WSW,248,3.1,4.5,28,0.00,,,0.00,WUHU216HW,2013-03-03 09:13:00,
2013-03-03 02:16:00,47.7,16.9,30.07,WSW,248,3.6,4.5,29,0.00,,,0.00,WUHU216HW,2013-03-03 09:16:00,
2013-03-03 02:17:00,47.7,16.9,30.07,SW,225,3.1,4.5,29,0.00,,,0.00,WUHU216HW,2013-03-03 09:17:00,
2013-03-03 02:19:00,47.7,16.9,30.07,SW,225,4.3,4.5,29,0.00,,,0.00,WUHU216HW,2013-03-03 09:19:00,
2013-03-03 02:21:00,47.5,16.7,30.07,SW,225,2.7,4.7,29,0.00,,,0.00,WUHU216HW,2013-03-03 09:21:00,
2013-03-03 02:22:00,47.5,16.7,30.07,WSW,248,2.9,4.7,29,0.00,,,0.00,WUHU216HW,2013-03-03 09:22:00,
2013-03-03 02:24:00,47.5,16.7,30.07,WSW,248,4.7,4.7,29,0.00,,,0.00,WUHU216HW,2013-03-03 09:24:00,
2013-03-03 02:27:00,47.5,16.7,30.07,WSW,248,2.9,5.4,29,0.00,,,0.00,WUHU216HW,2013-03-03 09:27:00,
2013-03-03 02:29:00,47.5,16.7,30.07,SW,225,2.2,5.4,29,0.00,,,0.00,WUHU216HW,2013-03-03 09:29:00,
2013-03-03 02:32:00,47.3,16.7,30.07,SW,225,2.2,5.4,29,0.00,,,0.00,WUHU216HW,2013-03-03 09:32:00,
2013-03-03 02:33:00,47.3,16.7,30.07,SW,225,2.9,5.4,29,0.00,,,0.00,WUHU216HW,2013-03-03 09:33:00,
2013-03-03 02:34:00,47.3,16.7,30.07,SW,225,2.9,5.4,29,0.00,,,0.00,WUHU216HW,2013-03-03 09:34:00,
2013-03-03 02:37:00,47.2,16.5,30.06,SW,225,3.1,3.8,29,0.00,,,0.00,WUHU216HW,2013-03-03 09:37:00,
2013-03-03 02:38:00,47.2,16.5,30.06,SW,225,3.4,3.8,29,0.00,,,0.00,WUHU216HW,2013-03-03 09:38:00,
2013-03-03 02:39:00,47.2,16.5,30.07,SSW,203,2.5,3.8,29,0.00,,,0.00,WUHU216HW,2013-03-03 09:39:00,
2013-03-03 02:42:00,47.0,16.3,30.06,SW,225,3.4,3.8,29,0.00,,,0.00,WUHU216HW,2013-03-03 09:42:00,
2013-03-03 02:43:00,47.0,16.3,30.06,SW,225,3.1,3.8,29,0.00,,,0.00,WUHU216HW,2013-03-03 09:43:00,
2013-03-03 02:44:00,46.8,16.1,30.06,SW,225,2.2,3.8,29,0.00,,,0.00,WUHU216HW,2013-03-03 09:44:00,
2013-03-03 02:47:00,46.8,17.1,30.06,WSW,248,1.8,3.4,30,0.00,,,0.00,WUHU216HW,2013-03-03 09:47:00,
2013-03-03 02:48:00,46.8,17.1,30.06,WSW,248,2.5,3.4,30,0.00,,,0.00,WUHU216HW,2013-03-03 09:48:00,
2013-03-03 02:49:00,46.6,16.9,30.06,SW,225,1.8,3.4,30,0.00,,,0.00,WUHU216HW,2013-03-03 09:49:00,
2013-03-03 02:53:00,46.6,16.9,30.06,SW,225,2.2,3.6,30,0.00,,,0.00,WUHU216HW,2013-03-03 09:53:00,
2013-03-03 02:54:00,46.4,16.7,30.06,SW,225,3.4,3.6,30,0.00,,,0.00,WUHU216HW,2013-03-03 09:54:00,
2013-03-03 02:58:00,46.3,16.6,30.05,SW,225,2.9,3.6,30,0.00,,,0.00,WUHU216HW,2013-03-03 09:58:00,
2013-03-03 02:59:00,46.1,17.1,30.05,SW,225,2.5,3.6,31,0.00,,,0.00,WUHU216HW,2013-03-03 09:59:00,
2013-03-03 03:03:00,46.1,17.1,30.05,SW,225,3.6,4.7,31,0.00,,,0.00,WUHU216HW,2013-03-03 10:03:00,
2013-03-03 03:04:00,45.9,16.9,30.05,SW,225,2.7,4.7,31,0.00,,,0.00,WUHU216HW,2013-03-03 10:04:00,
2013-03-03 03:08:00,45.7,16.7,30.05,SSW,203,2.7,4.7,31,0.00,,,0.00,WUHU216HW,2013-03-03 10:08:00,
2013-03-03 03:09:00,45.9,16.9,30.05,SW,225,2.5,4.7,31,0.00,,,0.00,WUHU216HW,2013-03-03 10:09:00,
2013-03-03 03:13:00,45.7,17.5,30.05,WSW,248,1.8,3.8,32,0.00,,,0.00,WUHU216HW,2013-03-03 10:13:00,
2013-03-03 03:14:00,45.7,17.5,30.05,WSW,248,2.5,3.8,32,0.00,,,0.00,WUHU216HW,2013-03-03 10:14:00,
2013-03-03 03:18:00,45.7,17.5,30.04,WSW,248,1.8,4.7,32,0.00,,,0.00,WUHU216HW,2013-03-03 10:18:00,
2013-03-03 03:19:00,45.7,17.5,30.04,SW,225,1.6,4.7,32,0.00,,,0.00,WUHU216HW,2013-03-03 10:19:00,
2013-03-03 03:20:00,45.7,17.5,30.04,WSW,248,2.0,4.7,32,0.00,,,0.00,WUHU216HW,2013-03-03 10:20:00,
2013-03-03 03:23:00,45.7,17.5,30.04,SSW,203,2.5,5.6,32,0.00,,,0.00,WUHU216HW,2013-03-03 10:23:00,
2013-03-03 03:24:00,45.7,17.5,30.04,SSW,203,2.5,5.6,32,0.00,,,0.00,WUHU216HW,2013-03-03 10:24:00,
2013-03-03 03:25:00,45.7,17.5,30.04,SSW,203,1.6,5.6,32,0.00,,,0.00,WUHU216HW,2013-03-03 10:25:00,
2013-03-03 03:29:00,45.9,17.6,30.04,SW,225,2.5,5.6,32,0.00,,,0.00,WUHU216HW,2013-03-03 10:29:00,
2013-03-03 03:30:00,46.1,17.7,30.04,SW,225,1.8,5.6,32,0.00,,,0.00,WUHU216HW,2013-03-03 10:30:00,
2013-03-03 03:34:00,46.1,17.1,30.04,SSW,203,2.5,4.7,31,0.00,,,0.00,WUHU216HW,2013-03-03 10:34:00,
2013-03-03 03:35:00,46.1,17.1,30.04,SW,225,2.5,4.7,31,0.00,,,0.00,WUHU216HW,2013-03-03 10:35:00,
2013-03-03 03:39:00,45.7,17.5,30.04,SW,225,2.7,4.7,32,0.00,,,0.00,WUHU216HW,2013-03-03 10:39:00,
2013-03-03 03:40:00,45.7,17.5,30.04,SW,225,2.9,4.7,32,0.00,,,0.00,WUHU216HW,2013-03-03 10:40:00,
2013-03-03 03:44:00,45.5,17.3,30.04,SW,225,3.4,4.5,32,0.00,,,0.00,WUHU216HW,2013-03-03 10:44:00,
2013-03-03 03:45:00,45.5,17.3,30.04,SW,225,2.5,4.5,32,0.00,,,0.00,WUHU216HW,2013-03-03 10:45:00,
2013-03-03 03:49:00,45.4,17.1,30.03,SW,225,2.9,4.5,32,0.00,,,0.00,WUHU216HW,2013-03-03 10:49:00,
2013-03-03 03:50:00,45.4,17.1,30.03,SW,225,2.9,4.5,32,0.00,,,0.00,WUHU216HW,2013-03-03 10:50:00,
2013-03-03 03:54:00,45.2,16.9,30.03,WSW,248,2.5,2.9,32,0.00,,,0.00,WUHU216HW,2013-03-03 10:54:00,
2013-03-03 03:55:00,45.2,16.9,30.03,WSW,248,2.5,2.9,32,0.00,,,0.00,WUHU216HW,2013-03-03 10:55:00,
2013-03-03 03:59:00,45.4,17.7,30.03,WSW,248,3.4,3.4,33,0.00,,,0.00,WUHU216HW,2013-03-03 10:59:00,
2013-03-03 04:00:00,45.4,17.7,30.03,WSW,248,3.4,3.4,33,0.00,,,0.00,WUHU216HW,2013-03-03 11:00:00,
2013-03-03 04:05:00,45.2,16.9,30.03,SW,225,1.8,4.5,32,0.00,,,0.00,WUHU216HW,2013-03-03 11:05:00,
2013-03-03 04:06:00,45.0,17.5,30.03,WSW,248,3.4,4.5,33,0.00,,,0.00,WUHU216HW,2013-03-03 11:06:00,
2013-03-03 04:10:00,45.0,17.5,30.03,SW,225,2.7,4.5,33,0.00,,,0.00,WUHU216HW,2013-03-03 11:10:00,
2013-03-03 04:11:00,45.0,17.5,30.03,WSW,248,2.9,4.5,33,0.00,,,0.00,WUHU216HW,2013-03-03 11:11:00,
2013-03-03 04:15:00,44.6,17.1,30.03,WSW,248,2.2,4.0,33,0.00,,,0.00,WUHU216HW,2013-03-03 11:15:00,
2013-03-03 04:16:00,44.6,17.1,30.03,WSW,248,2.9,4.0,33,0.00,,,0.00,WUHU216HW,2013-03-03 11:16:00,
2013-03-03 04:20:00,44.5,16.9,30.03,WSW,248,4.5,4.5,33,0.00,,,0.00,WUHU216HW,2013-03-03 11:20:00,
2013-03-03 04:21:00,44.5,16.9,30.03,WSW,248,3.8,4.5,33,0.00,,,0.00,WUHU216HW,2013-03-03 11:21:00,
2013-03-03 04:25:00,44.5,16.9,30.02,WSW,248,4.3,4.5,33,0.00,,,0.00,WUHU216HW,2013-03-03 11:25:00,
2013-03-03 04:26:00,44.5,16.9,30.02,WSW,248,4.3,4.7,33,0.00,,,0.00,WUHU216HW,2013-03-03 11:26:00,
2013-03-03 04:30:00,44.6,17.1,30.02,WSW,248,2.7,4.7,33,0.00,,,0.00,WUHU216HW,2013-03-03 11:30:00,
2013-03-03 04:31:00,44.6,17.1,30.02,WSW,248,3.8,4.7,33,0.00,,,0.00,WUHU216HW,2013-03-03 11:31:00,
2013-03-03 04:35:00,44.8,16.7,30.02,SW,225,2.7,4.7,32,0.00,,,0.00,WUHU216HW,2013-03-03 11:35:00,
2013-03-03 04:36:00,44.8,16.7,30.02,SW,225,2.2,4.7,32,0.00,,,0.00,WUHU216HW,2013-03-03 11:36:00,
2013-03-03 04:40:00,45.0,16.7,30.02,WSW,248,2.5,4.7,32,0.00,,,0.00,WUHU216HW,2013-03-03 11:40:00,
2013-03-03 04:41:00,45.0,16.7,30.02,WSW,248,2.5,4.7,32,0.00,,,0.00,WUHU216HW,2013-03-03 11:41:00,
2013-03-03 04:45:00,45.0,16.7,30.02,SW,225,3.4,4.7,32,0.00,,,0.00,WUHU216HW,2013-03-03 11:45:00,
2013-03-03 04:46:00,45.0,16.7,30.02,WSW,248,3.1,4.7,32,0.00,,,0.00,WUHU216HW,2013-03-03 11:46:00,
2013-03-03 04:50:00,44.8,16.7,30.02,WSW,248,4.5,4.5,32,0.00,,,0.00,WUHU216HW,2013-03-03 11:50:00,
2013-03-03 04:51:00,44.8,16.7,30.02,WSW,248,4.3,4.5,32,0.00,,,0.00,WUHU216HW,2013-03-03 11:51:00,
2013-03-03 04:55:00,44.8,16.7,30.02,SW,225,3.1,4.5,32,0.00,,,0.00,WUHU216HW,2013-03-03 11:55:00,
2013-03-03 04:56:00,44.8,16.7,30.02,SW,225,3.6,4.5,32,0.00,,,0.00,WUHU216HW,2013-03-03 11:56:00,
2013-03-03 04:57:00,44.8,16.7,30.02,SW,225,4.5,4.5,32,0.00,,,0.00,WUHU216HW,2013-03-03 11:57:00,
2013-03-03 05:00:00,44.6,16.5,30.02,SW,225,4.5,4.7,32,0.00,,,0.00,WUHU216HW,2013-03-03 12:00:00,
2013-03-03 05:01:00,44.6,16.5,30.02,SW,225,3.4,4.7,32,0.00,,,0.00,WUHU216HW,2013-03-03 12:01:00,
2013-03-03 05:02:00,44.6,16.5,30.02,SW,225,2.5,4.7,32,0.00,,,0.00,WUHU216HW,2013-03-03 12:02:00,
2013-03-03 05:05:00,44.6,16.5,30.02,WSW,248,3.8,4.7,32,0.00,,,0.00,WUHU216HW,2013-03-03 12:05:00,
2013-03-03 05:06:00,44.6,16.5,30.02,SW,225,3.8,4.7,32,0.00,,,0.00,WUHU216HW,2013-03-03 12:06:00,
2013-03-03 05:08:00,44.6,16.5,30.02,WSW,248,4.9,5.8,32,0.00,,,0.00,WUHU216HW,2013-03-03 12:08:00,
2013-03-03 05:11:00,44.6,16.5,30.02,WSW,248,4.0,5.8,32,0.00,,,0.00,WUHU216HW,2013-03-03 12:11:00,
2013-03-03 05:12:00,44.6,16.5,30.02,SW,225,3.8,5.8,32,0.00,,,0.00,WUHU216HW,2013-03-03 12:12:00,
2013-03-03 05:16:00,44.8,16.7,30.02,WSW,248,5.1,5.8,32,0.00,,,0.00,WUHU216HW,2013-03-03 12:16:00,
2013-03-03 05:17:00,44.8,16.7,30.02,WSW,248,5.1,5.8,32,0.00,,,0.00,WUHU216HW,2013-03-03 12:17:00,
2013-03-03 05:18:00,45.0,16.7,30.02,WSW,248,4.9,5.6,32,0.00,,,0.00,WUHU216HW,2013-03-03 12:18:00,
2013-03-03 05:21:00,45.2,16.9,30.02,SW,225,4.5,5.4,32,0.00,,,0.00,WUHU216HW,2013-03-03 12:21:00,
2013-03-03 05:22:00,45.2,16.3,30.02,SW,225,4.5,5.4,31,0.00,,,0.00,WUHU216HW,2013-03-03 12:22:00,
2013-03-03 05:23:00,45.2,16.3,30.02,SW,225,3.4,5.4,31,0.00,,,0.00,WUHU216HW,2013-03-03 12:23:00,
2013-03-03 05:26:00,45.4,16.5,30.02,SW,225,2.5,5.1,31,0.00,,,0.00,WUHU216HW,2013-03-03 12:26:00,
2013-03-03 05:27:00,45.4,16.5,30.02,SW,225,2.5,5.1,31,0.00,,,0.00,WUHU216HW,2013-03-03 12:27:00,
2013-03-03 05:28:00,45.2,16.3,30.02,SW,225,2.5,5.1,31,0.00,,,0.00,WUHU216HW,2013-03-03 12:28:00,
2013-03-03 05:29:00,45.2,16.3,30.02,SW,225,3.8,4.9,31,0.00,,,0.00,WUHU216HW,2013-03-03 12:29:00,
2013-03-03 05:31:00,45.0,16.1,30.02,SW,225,3.4,4.5,31,0.00,,,0.00,WUHU216HW,2013-03-03 12:31:00,
2013-03-03 05:32:00,45.0,16.1,30.02,WSW,248,3.1,4.0,31,0.00,,,0.00,WUHU216HW,2013-03-03 12:32:00,
2013-03-03 05:33:00,45.0,16.1,30.02,WSW,248,4.0,4.0,31,0.00,,,0.00,WUHU216HW,2013-03-03 12:33:00,
2013-03-03 05:34:00,45.0,16.1,30.02,WSW,248,3.6,4.0,31,0.00,,,0.00,WUHU216HW,2013-03-03 12:34:00,
2013-03-03 05:36:00,45.0,16.1,30.02,WSW,248,3.6,5.4,31,0.00,,,0.00,WUHU216HW,2013-03-03 12:36:00,
2013-03-03 05:37:00,45.0,16.1,30.02,SW,225,4.5,5.4,31,0.00,,,0.00,WUHU216HW,2013-03-03 12:37:00,
2013-03-03 05:38:00,45.0,16.1,30.02,SW,225,4.0,5.4,31,0.00,,,0.00,WUHU216HW,2013-03-03 12:38:00,
2013-03-03 05:39:00,45.0,16.1,30.02,WSW,248,3.4,5.4,31,0.00,,,0.00,WUHU216HW,2013-03-03 12:39:00,
2013-03-03 05:41:00,45.0,16.1,30.03,WSW,248,5.1,5.4,31,0.00,,,0.00,WUHU216HW,2013-03-03 12:41:00,
2013-03-03 05:43:00,45.0,16.1,30.03,WSW,248,4.0,5.6,31,0.00,,,0.00,WUHU216HW,2013-03-03 12:43:00,
2013-03-03 05:44:00,45.0,16.1,30.03,WSW,248,4.7,5.6,31,0.00,,,0.00,WUHU216HW,2013-03-03 12:44:00,
2013-03-03 05:46:00,45.0,16.1,30.03,WSW,248,6.3,6.3,31,0.00,,,0.00,WUHU216HW,2013-03-03 12:46:00,
2013-03-03 05:48:00,45.0,16.1,30.03,SW,225,4.9,8.1,31,0.00,,,0.00,WUHU216HW,2013-03-03 12:48:00,
2013-03-03 05:49:00,45.0,16.1,30.03,WSW,248,4.7,8.1,31,0.00,,,0.00,WUHU216HW,2013-03-03 12:49:00,
2013-03-03 05:51:00,45.0,16.1,30.03,SSW,203,4.0,8.1,31,0.00,,,0.00,WUHU216HW,2013-03-03 12:51:00,
2013-03-03 05:53:00,44.8,15.9,30.03,SW,225,4.0,8.1,31,0.00,,,0.00,WUHU216HW,2013-03-03 12:53:00,
2013-03-03 05:54:00,44.8,15.9,30.03,SW,225,2.7,8.1,31,0.00,,,0.00,WUHU216HW,2013-03-03 12:54:00,
2013-03-03 05:55:00,44.8,15.9,30.03,SW,225,2.9,8.1,31,0.00,,,0.00,WUHU216HW,2013-03-03 12:55:00,
2013-03-03 05:56:00,44.6,15.8,30.02,SW,225,3.4,8.1,31,0.00,,,0.00,WUHU216HW,2013-03-03 12:56:00,
2013-03-03 05:58:00,44.6,15.8,30.02,SW,225,3.6,4.9,31,0.00,,,0.00,WUHU216HW,2013-03-03 12:58:00,
2013-03-03 05:59:00,44.6,15.8,30.02,SSW,203,2.9,4.7,31,0.00,,,0.00,WUHU216HW,2013-03-03 12:59:00,
2013-03-03 06:00:00,44.6,15.8,30.02,WSW,248,3.4,4.7,31,0.00,,,0.00,WUHU216HW,2013-03-03 13:00:00,
2013-03-03 06:01:00,44.5,15.7,30.03,WSW,248,4.0,4.7,31,0.00,,,0.00,WUHU216HW,2013-03-03 13:01:00,
2013-03-03 06:03:00,44.3,15.5,30.03,SW,225,3.6,4.7,31,0.00,,,0.00,WUHU216HW,2013-03-03 13:03:00,
2013-03-03 06:04:00,44.3,15.5,30.03,WSW,248,3.8,4.7,31,0.00,,,0.00,WUHU216HW,2013-03-03 13:04:00,
2013-03-03 06:05:00,44.3,15.5,30.03,WSW,248,3.4,4.7,31,0.00,,,0.00,WUHU216HW,2013-03-03 13:05:00,
2013-03-03 06:06:00,44.3,15.5,30.03,WSW,248,2.0,4.7,31,0.00,,,0.00,WUHU216HW,2013-03-03 13:06:00,
2013-03-03 06:08:00,44.3,15.5,30.03,WSW,248,2.7,4.7,31,0.00,,,0.00,WUHU216HW,2013-03-03 13:08:00,
2013-03-03 06:09:00,44.3,15.5,30.02,SW,225,2.7,4.7,31,0.00,,,0.00,WUHU216HW,2013-03-03 13:09:00,
2013-03-03 06:10:00,44.5,15.7,30.03,SW,225,2.7,4.7,31,0.00,,,0.00,WUHU216HW,2013-03-03 13:10:00,
2013-03-03 06:11:00,44.5,15.7,30.03,SW,225,2.5,4.7,31,0.00,,,0.00,WUHU216HW,2013-03-03 13:11:00,
2013-03-03 06:14:00,44.5,15.7,30.02,SW,225,2.9,4.0,31,0.00,,,0.00,WUHU216HW,2013-03-03 13:14:00,
2013-03-03 06:15:00,44.6,15.8,30.03,WSW,248,2.2,3.8,31,0.00,,,0.00,WUHU216HW,2013-03-03 13:15:00,
2013-03-03 06:17:00,44.5,14.9,30.03,SW,225,1.6,3.8,30,0.00,,,0.00,WUHU216HW,2013-03-03 13:17:00,
2013-03-03 06:19:00,44.6,15.1,30.03,WSW,248,2.2,3.6,30,0.00,,,0.00,WUHU216HW,2013-03-03 13:19:00,
2013-03-03 06:20:00,44.8,15.3,30.03,WSW,248,2.5,3.1,30,0.00,,,0.00,WUHU216HW,2013-03-03 13:20:00,
2013-03-03 06:22:00,44.8,15.3,30.03,WSW,248,1.8,3.1,30,0.00,,,0.00,WUHU216HW,2013-03-03 13:22:00,
2013-03-03 06:24:00,45.0,15.5,30.03,WSW,248,2.5,3.4,30,0.00,,,0.00,WUHU216HW,2013-03-03 13:24:00,
2013-03-03 06:25:00,45.0,15.5,30.03,WSW,248,1.8,3.4,30,0.00,,,0.00,WUHU216HW,2013-03-03 13:25:00,
2013-03-03 06:27:00,45.2,15.6,30.03,SW,225,2.5,3.4,30,0.00,,,0.00,WUHU216HW,2013-03-03 13:27:00,
2013-03-03 06:29:00,45.2,15.6,30.03,SW,225,2.5,3.4,30,0.00,,,0.00,WUHU216HW,2013-03-03 13:29:00,
2013-03-03 06:31:00,45.2,15.6,30.03,SW,225,2.7,3.4,30,0.00,,,0.00,WUHU216HW,2013-03-03 13:31:00,
2013-03-03 06:32:00,45.2,15.6,30.03,SW,225,1.8,3.4,30,0.00,,,0.00,WUHU216HW,2013-03-03 13:32:00,
2013-03-03 06:34:00,45.0,15.5,30.03,SW,225,3.1,3.4,30,0.00,,,0.00,WUHU216HW,2013-03-03 13:34:00,
2013-03-03 06:36:00,45.0,15.5,30.03,SW,225,2.2,3.4,30,0.00,,,0.00,WUHU216HW,2013-03-03 13:36:00,
2013-03-03 06:37:00,44.8,15.3,30.03,SW,225,2.5,3.4,30,0.00,,,0.00,WUHU216HW,2013-03-03 13:37:00,
2013-03-03 06:39:00,44.6,15.1,30.03,WSW,248,2.7,3.4,30,0.00,,,0.00,WUHU216HW,2013-03-03 13:39:00,
2013-03-03 06:40:00,44.6,15.1,30.03,SW,225,3.6,3.6,30,0.00,,,0.00,WUHU216HW,2013-03-03 13:40:00,
2013-03-03 06:41:00,44.6,15.1,30.03,SW,225,1.8,3.6,30,0.00,,,0.00,WUHU216HW,2013-03-03 13:41:00,
2013-03-03 06:43:00,44.5,14.9,30.03,SW,225,2.5,3.6,30,0.00,,,0.00,WUHU216HW,2013-03-03 13:43:00,
2013-03-03 06:45:00,44.5,15.7,30.03,SW,225,2.5,3.6,31,0.00,,,0.00,WUHU216HW,2013-03-03 13:45:00,
2013-03-03 06:46:00,44.3,14.8,30.03,SW,225,2.2,3.6,30,0.00,,,0.00,WUHU216HW,2013-03-03 13:46:00,
2013-03-03 06:48:00,44.3,15.5,30.03,WSW,248,4.0,4.0,31,0.00,,,0.00,WUHU216HW,2013-03-03 13:48:00,
2013-03-03 06:50:00,44.3,15.5,30.03,SW,225,1.6,4.7,31,0.00,,,0.00,WUHU216HW,2013-03-03 13:50:00,
2013-03-03 06:51:00,44.1,15.3,30.03,SW,225,2.5,4.7,31,0.00,,,0.00,WUHU216HW,2013-03-03 13:51:00,
2013-03-03 06:53:00,44.1,15.3,30.03,SW,225,2.5,4.7,31,0.00,,,0.00,WUHU216HW,2013-03-03 13:53:00,
2013-03-03 06:55:00,44.3,15.5,30.03,SW,225,2.5,4.7,31,0.00,,,0.00,WUHU216HW,2013-03-03 13:55:00,
2013-03-03 06:56:00,44.3,15.5,30.03,West,270,0.9,4.7,31,0.00,,,0.00,WUHU216HW,2013-03-03 13:56:00,
2013-03-03 06:58:00,44.5,15.7,30.03,SW,225,3.1,4.7,31,0.00,,,0.00,WUHU216HW,2013-03-03 13:58:00,
2013-03-03 07:00:00,44.6,15.8,30.03,WSW,248,1.3,3.8,31,0.00,,,0.00,WUHU216HW,2013-03-03 14:00:00,
2013-03-03 07:01:00,44.6,15.8,30.03,SW,225,1.1,3.8,31,0.00,,,0.00,WUHU216HW,2013-03-03 14:01:00,
2013-03-03 07:03:00,44.6,15.8,30.03,SW,225,1.8,3.8,31,0.00,,,0.00,WUHU216HW,2013-03-03 14:03:00,
2013-03-03 07:05:00,44.6,15.8,30.03,SW,225,1.8,3.8,31,0.00,,,0.00,WUHU216HW,2013-03-03 14:05:00,
2013-03-03 07:06:00,44.8,15.9,30.03,SSW,203,1.8,3.8,31,0.00,,,0.00,WUHU216HW,2013-03-03 14:06:00,
2013-03-03 07:08:00,44.8,15.9,30.03,SSW,203,1.8,3.4,31,0.00,,,0.00,WUHU216HW,2013-03-03 14:08:00,
2013-03-03 07:10:00,44.6,15.8,30.03,SSW,203,2.5,3.4,31,0.00,,,0.00,WUHU216HW,2013-03-03 14:10:00,
2013-03-03 07:11:00,44.6,15.8,30.03,South,180,2.7,3.4,31,0.00,,,0.00,WUHU216HW,2013-03-03 14:11:00,
2013-03-03 07:14:00,44.6,16.5,30.03,SW,225,2.0,3.4,32,0.00,,,0.00,WUHU216HW,2013-03-03 14:14:00,
2013-03-03 07:15:00,44.6,16.5,30.03,WSW,248,2.2,3.4,32,0.00,,,0.00,WUHU216HW,2013-03-03 14:15:00,
2013-03-03 07:16:00,44.6,16.5,30.03,WSW,248,2.0,3.4,32,0.00,,,0.00,WUHU216HW,2013-03-03 14:16:00,
2013-03-03 07:19:00,44.6,16.5,30.03,SW,225,1.8,3.1,32,0.00,,,0.00,WUHU216HW,2013-03-03 14:19:00,
2013-03-03 07:20:00,44.8,16.7,30.03,SW,225,1.6,3.1,32,0.00,,,0.00,WUHU216HW,2013-03-03 14:20:00,
2013-03-03 07:21:00,44.8,16.7,30.03,SW,225,1.3,3.1,32,0.00,,,0.00,WUHU216HW,2013-03-03 14:21:00,
2013-03-03 07:22:00,45.0,16.7,30.03,SW,225,1.6,2.7,32,0.00,,,0.00,WUHU216HW,2013-03-03 14:22:00,
2013-03-03 07:24:00,45.2,16.9,30.03,SSW,203,1.3,2.7,32,0.00,,,0.00,WUHU216HW,2013-03-03 14:24:00,
2013-03-03 07:25:00,45.4,17.1,30.03,SSW,203,1.6,2.7,32,0.00,,,0.00,WUHU216HW,2013-03-03 14:25:00,
2013-03-03 07:26:00,45.5,17.3,30.03,SSW,203,2.2,2.7,32,0.00,,,0.00,WUHU216HW,2013-03-03 14:26:00,
2013-03-03 07:27:00,45.7,17.5,30.03,SW,225,1.6,2.7,32,0.00,,,0.00,WUHU216HW,2013-03-03 14:27:00,
2013-03-03 07:29:00,45.9,17.6,30.03,WSW,248,1.1,2.5,32,0.00,,,0.00,WUHU216HW,2013-03-03 14:29:00,
2013-03-03 07:30:00,46.1,17.7,30.03,SW,225,0.9,2.5,32,0.00,,,0.00,WUHU216HW,2013-03-03 14:30:00,
2013-03-03 07:31:00,46.3,17.9,30.03,SW,225,1.1,2.5,32,0.00,,,0.00,WUHU216HW,2013-03-03 14:31:00,
2013-03-03 07:32:00,46.4,18.1,30.03,SW,225,2.0,2.5,32,0.00,,,0.00,WUHU216HW,2013-03-03 14:32:00,
2013-03-03 07:34:00,46.8,18.4,30.03,SW,225,3.4,3.4,32,0.00,,,0.00,WUHU216HW,2013-03-03 14:34:00,
2013-03-03 07:35:00,47.0,18.5,30.03,South,180,1.6,3.4,32,0.00,,,0.00,WUHU216HW,2013-03-03 14:35:00,
2013-03-03 07:36:00,47.2,18.7,30.03,South,180,1.3,3.4,32,0.00,,,0.00,WUHU216HW,2013-03-03 14:36:00,
2013-03-03 07:37:00,47.3,18.9,30.03,SSW,203,1.1,3.4,32,0.00,,,0.00,WUHU216HW,2013-03-03 14:37:00,
2013-03-03 07:39:00,47.5,19.1,30.03,SW,225,0.2,3.4,32,0.00,,,0.00,WUHU216HW,2013-03-03 14:39:00,
2013-03-03 07:40:00,47.7,19.2,30.03,SW,225,0.0,3.4,32,0.00,,,0.00,WUHU216HW,2013-03-03 14:40:00,
2013-03-03 07:41:00,47.9,19.4,30.03,SW,225,0.0,3.4,32,0.00,,,0.00,WUHU216HW,2013-03-03 14:41:00,
2013-03-03 07:42:00,48.1,18.9,30.03,SW,225,0.0,3.4,31,0.00,,,0.00,WUHU216HW,2013-03-03 14:42:00,
2013-03-03 07:44:00,48.4,19.2,30.03,SW,225,0.0,3.4,31,0.00,,,0.00,WUHU216HW,2013-03-03 14:44:00,
2013-03-03 07:45:00,48.6,19.4,30.03,WSW,248,0.0,1.8,31,0.00,,,0.00,WUHU216HW,2013-03-03 14:45:00,
2013-03-03 07:46:00,48.8,19.4,30.03,WSW,248,0.7,1.1,31,0.00,,,0.00,WUHU216HW,2013-03-03 14:46:00,
2013-03-03 07:48:00,49.0,19.6,30.03,SW,225,0.4,1.1,31,0.00,,,0.00,WUHU216HW,2013-03-03 14:48:00,
2013-03-03 07:49:00,49.3,19.9,30.03,SW,225,0.0,1.1,31,0.00,,,0.00,WUHU216HW,2013-03-03 14:49:00,
2013-03-03 07:50:00,49.5,20.1,30.03,SW,225,0.0,1.1,31,0.00,,,0.00,WUHU216HW,2013-03-03 14:50:00,
2013-03-03 07:52:00,49.7,19.5,30.03,WSW,248,0.4,1.1,30,0.00,,,0.00,WUHU216HW,2013-03-03 14:52:00,
2013-03-03 07:53:00,50.0,20.5,30.03,West,270,3.4,3.4,31,0.00,,,0.00,WUHU216HW,2013-03-03 14:53:00,
2013-03-03 07:54:00,50.4,20.8,30.03,WSW,248,2.5,3.6,31,0.00,,,0.00,WUHU216HW,2013-03-03 14:54:00,
2013-03-03 07:55:00,50.6,21.0,30.03,WSW,248,2.2,3.6,31,0.00,,,0.00,WUHU216HW,2013-03-03 14:55:00,
2013-03-03 07:57:00,50.9,20.6,30.04,WSW,248,0.9,3.6,30,0.00,,,0.00,WUHU216HW,2013-03-03 14:57:00,
2013-03-03 07:58:00,51.3,21.0,30.03,WSW,248,0.4,3.6,30,0.00,,,0.00,WUHU216HW,2013-03-03 14:58:00,
2013-03-03 08:00:00,51.7,21.2,30.03,WSW,248,0.0,3.6,30,0.00,,,0.00,WUHU216HW,2013-03-03 15:00:00,
2013-03-03 08:02:00,52.2,20.8,30.04,SW,225,1.1,3.6,29,0.00,,,0.00,WUHU216HW,2013-03-03 15:02:00,
2013-03-03 08:03:00,52.2,20.8,30.04,WSW,248,1.1,3.6,29,0.00,,,0.00,WUHU216HW,2013-03-03 15:03:00,
2013-03-03 08:05:00,52.7,21.3,30.04,South,180,1.1,3.1,29,0.00,,,0.00,WUHU216HW,2013-03-03 15:05:00,
2013-03-03 08:06:00,52.7,21.3,30.04,South,180,0.2,2.0,29,0.00,,,0.00,WUHU216HW,2013-03-03 15:06:00,
2013-03-03 08:07:00,53.1,21.6,30.04,South,180,0.9,1.6,29,0.00,,,0.00,WUHU216HW,2013-03-03 15:07:00,
2013-03-03 08:08:00,53.1,20.7,30.04,SSW,203,1.6,1.6,28,0.00,,,0.00,WUHU216HW,2013-03-03 15:08:00,
2013-03-03 08:10:00,53.5,20.0,30.04,SSE,158,1.8,2.5,27,0.00,,,0.00,WUHU216HW,2013-03-03 15:10:00,
2013-03-03 08:11:00,53.6,21.2,30.04,SE,135,2.0,2.7,28,0.00,,,0.00,WUHU216HW,2013-03-03 15:11:00,
2013-03-03 08:12:00,54.0,21.4,30.04,ENE,68,0.0,2.7,28,0.00,,,0.00,WUHU216HW,2013-03-03 15:12:00,
2013-03-03 08:13:00,54.0,21.4,30.04,ENE,68,0.7,2.7,28,0.00,,,0.00,WUHU216HW,2013-03-03 15:13:00,
2013-03-03 08:15:00,54.4,21.7,30.04,ESE,113,0.4,2.7,28,0.00,,,0.00,WUHU216HW,2013-03-03 15:15:00,
2013-03-03 08:16:00,54.5,21.9,30.04,SE,135,1.1,2.7,28,0.00,,,0.00,WUHU216HW,2013-03-03 15:16:00,
2013-03-03 08:17:00,54.9,22.1,30.04,SE,135,0.0,2.7,28,0.00,,,0.00,WUHU216HW,2013-03-03 15:17:00,
2013-03-03 08:18:00,54.9,22.1,30.04,SE,135,0.0,2.7,28,0.00,,,0.00,WUHU216HW,2013-03-03 15:18:00,
2013-03-03 08:20:00,55.3,22.5,30.04,East,90,2.9,3.4,28,0.00,,,0.00,WUHU216HW,2013-03-03 15:20:00,
2013-03-03 08:21:00,55.4,22.6,30.04,East,90,3.4,3.4,28,0.00,,,0.00,WUHU216HW,2013-03-03 15:21:00,
2013-03-03 08:22:00,55.8,23.0,30.04,ENE,68,1.1,3.4,28,0.00,,,0.00,WUHU216HW,2013-03-03 15:22:00,
2013-03-03 08:23:00,55.8,22.0,30.04,East,90,1.6,3.4,27,0.00,,,0.00,WUHU216HW,2013-03-03 15:23:00,
2013-03-03 08:25:00,56.3,22.4,30.04,East,90,2.9,3.4,27,0.00,,,0.00,WUHU216HW,2013-03-03 15:25:00,
2013-03-03 08:26:00,56.3,22.4,30.04,East,90,2.2,3.4,27,0.00,,,0.00,WUHU216HW,2013-03-03 15:26:00,
2013-03-03 08:27:00,56.7,21.8,30.04,East,90,1.8,3.4,26,0.00,,,0.00,WUHU216HW,2013-03-03 15:27:00,
2013-03-03 08:28:00,56.7,20.9,30.04,ENE,68,2.2,3.4,25,0.00,,,0.00,WUHU216HW,2013-03-03 15:28:00,
2013-03-03 08:30:00,57.2,21.3,30.04,ENE,68,2.7,3.4,25,0.00,,,0.00,WUHU216HW,2013-03-03 15:30:00,
2013-03-03 08:31:00,57.2,20.3,30.04,East,90,1.8,3.4,24,0.00,,,0.00,WUHU216HW,2013-03-03 15:31:00,
2013-03-03 08:33:00,57.6,20.7,30.04,East,90,2.5,3.4,24,0.00,,,0.00,WUHU216HW,2013-03-03 15:33:00,
2013-03-03 08:35:00,58.0,21.0,30.04,SE,135,4.9,4.9,24,0.00,,,0.00,WUHU216HW,2013-03-03 15:35:00,
2013-03-03 08:36:00,58.0,21.0,30.04,East,90,4.5,4.9,24,0.00,,,0.00,WUHU216HW,2013-03-03 15:36:00,
2013-03-03 08:38:00,58.3,21.2,30.04,ESE,113,4.0,4.9,24,0.00,,,0.00,WUHU216HW,2013-03-03 15:38:00,
2013-03-03 08:40:00,58.5,20.4,30.04,ESE,113,2.2,4.9,23,0.00,,,0.00,WUHU216HW,2013-03-03 15:40:00,
2013-03-03 08:41:00,58.7,20.6,30.04,SE,135,1.1,4.9,23,0.00,,,0.00,WUHU216HW,2013-03-03 15:41:00,
2013-03-03 08:43:00,58.7,20.6,30.04,ESE,113,1.6,4.9,23,0.00,,,0.00,WUHU216HW,2013-03-03 15:43:00,
2013-03-03 08:46:00,59.0,20.9,30.04,ENE,68,1.8,4.7,23,0.00,,,0.00,WUHU216HW,2013-03-03 15:46:00,
2013-03-03 08:48:00,59.4,21.3,30.04,ENE,68,1.6,3.4,23,0.00,,,0.00,WUHU216HW,2013-03-03 15:48:00,
2013-03-03 08:49:00,59.4,21.3,30.04,ESE,113,1.1,3.4,23,0.00,,,0.00,WUHU216HW,2013-03-03 15:49:00,
2013-03-03 08:51:00,59.6,21.4,30.04,ENE,68,1.1,3.4,23,0.00,,,0.00,WUHU216HW,2013-03-03 15:51:00,
2013-03-03 08:53:00,59.8,20.6,30.04,ENE,68,1.6,2.7,22,0.00,,,0.00,WUHU216HW,2013-03-03 15:53:00,
2013-03-03 08:54:00,59.8,20.6,30.04,ENE,68,1.6,2.7,22,0.00,,,0.00,WUHU216HW,2013-03-03 15:54:00,
2013-03-03 08:56:00,60.3,21.1,30.04,East,90,1.8,2.5,22,0.00,,,0.00,WUHU216HW,2013-03-03 15:56:00,
2013-03-03 08:58:00,60.7,21.3,30.04,NE,45,2.2,3.4,22,0.00,,,0.00,WUHU216HW,2013-03-03 15:58:00,
2013-03-03 08:59:00,60.7,21.3,30.04,East,90,1.8,3.4,22,0.00,,,0.00,WUHU216HW,2013-03-03 15:59:00,
2013-03-03 09:01:00,60.8,21.5,30.04,ESE,113,0.7,3.4,22,0.00,,,0.00,WUHU216HW,2013-03-03 16:01:00,
2013-03-03 09:02:00,60.8,20.6,30.04,East,90,0.0,3.4,21,0.00,,,0.00,WUHU216HW,2013-03-03 16:02:00,
2013-03-03 09:03:00,61.2,20.9,30.04,NE,45,1.8,3.4,21,0.00,,,0.00,WUHU216HW,2013-03-03 16:03:00,
2013-03-03 09:04:00,61.2,20.9,30.04,NE,45,0.9,3.4,21,0.00,,,0.00,WUHU216HW,2013-03-03 16:04:00,
2013-03-03 09:06:00,61.6,21.2,30.04,ENE,68,2.5,3.4,21,0.00,,,0.00,WUHU216HW,2013-03-03 16:06:00,
2013-03-03 09:07:00,61.6,21.2,30.04,NNE,23,2.7,3.4,21,0.00,,,0.00,WUHU216HW,2013-03-03 16:07:00,
2013-03-03 09:09:00,61.9,21.4,30.04,NE,45,2.5,3.1,21,0.00,,,0.00,WUHU216HW,2013-03-03 16:09:00,
2013-03-03 09:11:00,62.3,22.7,30.04,North,0,0.7,3.1,22,0.00,,,0.00,WUHU216HW,2013-03-03 16:11:00,
2013-03-03 09:12:00,62.3,21.8,30.04,NNE,23,2.2,3.1,21,0.00,,,0.00,WUHU216HW,2013-03-03 16:12:00,
2013-03-03 09:14:00,62.5,21.9,30.04,ENE,68,1.1,3.1,21,0.00,,,0.00,WUHU216HW,2013-03-03 16:14:00,
2013-03-03 09:16:00,62.6,22.1,30.04,ENE,68,3.4,3.4,21,0.00,,,0.00,WUHU216HW,2013-03-03 16:16:00,
2013-03-03 09:17:00,62.6,22.1,30.04,NE,45,1.8,3.4,21,0.00,,,0.00,WUHU216HW,2013-03-03 16:17:00,
2013-03-03 09:19:00,63.0,22.3,30.04,ENE,68,2.5,3.4,21,0.00,,,0.00,WUHU216HW,2013-03-03 16:19:00,
2013-03-03 09:21:00,63.0,22.3,30.04,NNE,23,1.1,3.4,21,0.00,,,0.00,WUHU216HW,2013-03-03 16:21:00,
2013-03-03 09:22:00,63.0,22.3,30.04,NNE,23,1.1,3.4,21,0.00,,,0.00,WUHU216HW,2013-03-03 16:22:00,
2013-03-03 09:24:00,63.2,22.5,30.04,North,0,2.2,3.4,21,0.00,,,0.00,WUHU216HW,2013-03-03 16:24:00,
2013-03-03 09:26:00,63.4,22.6,30.04,NNE,23,2.5,3.4,21,0.00,,,0.00,WUHU216HW,2013-03-03 16:26:00,
2013-03-03 09:27:00,63.4,21.6,30.04,NNE,23,2.5,3.4,20,0.00,,,0.00,WUHU216HW,2013-03-03 16:27:00,
2013-03-03 09:29:00,63.5,21.8,30.04,NNE,23,0.9,3.4,20,0.00,,,0.00,WUHU216HW,2013-03-03 16:29:00,
2013-03-03 09:32:00,63.7,20.3,30.04,North,0,0.0,2.5,19,0.00,,,0.00,WUHU216HW,2013-03-03 16:32:00,
2013-03-03 09:34:00,64.1,20.6,30.04,NNE,23,0.7,2.5,19,0.00,,,0.00,WUHU216HW,2013-03-03 16:34:00,
2013-03-03 09:37:00,64.3,20.8,30.04,NNE,23,1.3,2.5,19,0.00,,,0.00,WUHU216HW,2013-03-03 16:37:00,
2013-03-03 09:39:00,64.4,19.4,30.04,East,90,1.6,3.4,18,0.00,,,0.00,WUHU216HW,2013-03-03 16:39:00,
2013-03-03 09:40:00,64.4,19.4,30.04,ESE,113,1.6,3.4,18,0.00,,,0.00,WUHU216HW,2013-03-03 16:40:00,
2013-03-03 09:42:00,64.6,21.1,30.03,East,90,2.2,3.4,19,0.00,,,0.00,WUHU216HW,2013-03-03 16:42:00,
2013-03-03 09:45:00,64.8,19.6,30.03,East,90,2.2,3.4,18,0.00,,,0.00,WUHU216HW,2013-03-03 16:45:00,
2013-03-03 09:47:00,65.2,19.9,30.03,ENE,68,0.9,3.4,18,0.00,,,0.00,WUHU216HW,2013-03-03 16:47:00,
2013-03-03 09:50:00,65.3,18.5,30.03,North,0,1.6,3.4,17,0.00,,,0.00,WUHU216HW,2013-03-03 16:50:00,
2013-03-03 09:52:00,65.5,18.6,30.03,NE,45,1.8,3.4,17,0.00,,,0.00,WUHU216HW,2013-03-03 16:52:00,
2013-03-03 09:55:00,65.7,17.2,30.03,NW,315,0.9,3.4,16,0.00,,,0.00,WUHU216HW,2013-03-03 16:55:00,
2013-03-03 09:57:00,65.9,18.9,30.03,NNE,23,2.5,4.7,17,0.00,,,0.00,WUHU216HW,2013-03-03 16:57:00,
2013-03-03 10:00:00,66.1,19.1,30.03,NNE,23,0.4,4.7,17,0.00,,,0.00,WUHU216HW,2013-03-03 17:00:00,
2013-03-03 10:02:00,66.2,19.2,30.03,NNE,23,3.8,4.7,17,0.00,,,0.00,WUHU216HW,2013-03-03 17:02:00,
2013-03-03 10:03:00,66.2,19.2,30.03,NNE,23,1.8,4.7,17,0.00,,,0.00,WUHU216HW,2013-03-03 17:03:00,
2013-03-03 10:05:00,66.4,17.7,30.03,North,0,0.7,4.7,16,0.00,,,0.00,WUHU216HW,2013-03-03 17:05:00,
2013-03-03 10:07:00,66.6,17.9,30.03,ENE,68,0.7,3.8,16,0.00,,,0.00,WUHU216HW,2013-03-03 17:07:00,
2013-03-03 10:08:00,66.6,17.9,30.03,North,0,3.8,3.8,16,0.00,,,0.00,WUHU216HW,2013-03-03 17:08:00,
2013-03-03 10:10:00,66.8,18.1,30.03,ENE,68,2.0,4.0,16,0.00,,,0.00,WUHU216HW,2013-03-03 17:10:00,
2013-03-03 10:12:00,67.0,18.2,30.03,NNE,23,3.6,4.0,16,0.00,,,0.00,WUHU216HW,2013-03-03 17:12:00,
2013-03-03 10:13:00,67.0,18.2,30.03,NW,315,1.8,4.0,16,0.00,,,0.00,WUHU216HW,2013-03-03 17:13:00,
2013-03-03 10:15:00,67.1,18.4,30.03,NNW,338,3.8,5.1,16,0.00,,,0.00,WUHU216HW,2013-03-03 17:15:00,
2013-03-03 10:16:00,67.1,18.4,30.03,NNW,338,3.8,5.1,16,0.00,,,0.00,WUHU216HW,2013-03-03 17:16:00,
2013-03-03 10:17:00,67.3,18.6,30.03,NE,45,4.5,5.1,16,0.00,,,0.00,WUHU216HW,2013-03-03 17:17:00,
2013-03-03 10:18:00,67.3,18.6,30.03,North,0,5.8,6.9,16,0.00,,,0.00,WUHU216HW,2013-03-03 17:18:00,
2013-03-03 10:21:00,67.5,18.7,30.02,NNE,23,6.5,6.9,16,0.00,,,0.00,WUHU216HW,2013-03-03 17:21:00,
2013-03-03 10:22:00,67.7,18.8,30.03,ENE,68,4.3,6.9,16,0.00,,,0.00,WUHU216HW,2013-03-03 17:22:00,
2013-03-03 10:24:00,67.7,18.8,30.02,NE,45,5.4,6.9,16,0.00,,,0.00,WUHU216HW,2013-03-03 17:24:00,
2013-03-03 10:26:00,67.7,18.8,30.02,North,0,2.0,6.9,16,0.00,,,0.00,WUHU216HW,2013-03-03 17:26:00,
2013-03-03 10:27:00,67.9,19.0,30.02,NNE,23,4.0,6.9,16,0.00,,,0.00,WUHU216HW,2013-03-03 17:27:00,
2013-03-03 10:29:00,68.0,19.2,30.02,ENE,68,5.4,6.5,16,0.00,,,0.00,WUHU216HW,2013-03-03 17:29:00,
2013-03-03 10:31:00,68.0,19.2,30.02,NNE,23,4.0,6.5,16,0.00,,,0.00,WUHU216HW,2013-03-03 17:31:00,
2013-03-03 10:33:00,68.2,17.7,30.02,North,0,1.3,6.3,15,0.00,,,0.00,WUHU216HW,2013-03-03 17:33:00,
2013-03-03 10:34:00,68.4,17.8,30.02,ENE,68,4.3,6.0,15,0.00,,,0.00,WUHU216HW,2013-03-03 17:34:00,
2013-03-03 10:36:00,68.6,17.9,30.02,North,0,3.1,6.0,15,0.00,,,0.00,WUHU216HW,2013-03-03 17:36:00,
2013-03-03 10:38:00,68.8,18.1,30.02,NNE,23,4.9,6.5,15,0.00,,,0.00,WUHU216HW,2013-03-03 17:38:00,
2013-03-03 10:39:00,68.9,18.3,30.02,North,0,3.6,6.5,15,0.00,,,0.00,WUHU216HW,2013-03-03 17:39:00,
2013-03-03 10:41:00,68.9,18.3,30.02,North,0,1.8,6.5,15,0.00,,,0.00,WUHU216HW,2013-03-03 17:41:00,
2013-03-03 10:43:00,69.1,18.4,30.02,NNE,23,5.1,6.5,15,0.00,,,0.00,WUHU216HW,2013-03-03 17:43:00,
2013-03-03 10:44:00,69.3,18.5,30.02,ENE,68,3.1,6.9,15,0.00,,,0.00,WUHU216HW,2013-03-03 17:44:00,
2013-03-03 10:46:00,69.5,15.4,30.02,North,0,3.1,6.9,13,0.00,,,0.00,WUHU216HW,2013-03-03 17:46:00,
2013-03-03 10:48:00,69.5,15.4,30.02,NNE,23,3.6,8.7,13,0.00,,,0.00,WUHU216HW,2013-03-03 17:48:00,
2013-03-03 10:49:00,69.7,14.0,30.03,North,0,3.6,8.7,12,0.00,,,0.00,WUHU216HW,2013-03-03 17:49:00,
2013-03-03 10:51:00,69.8,15.7,30.02,NNE,23,4.9,8.7,13,0.00,,,0.00,WUHU216HW,2013-03-03 17:51:00,
2013-03-03 10:53:00,70.0,15.9,30.03,NW,315,2.5,8.7,13,0.00,,,0.00,WUHU216HW,2013-03-03 17:53:00,
2013-03-03 10:55:00,70.0,14.2,30.02,ENE,68,1.1,8.7,12,0.00,,,0.00,WUHU216HW,2013-03-03 17:55:00,
2013-03-03 10:56:00,70.2,15.9,30.03,NE,45,3.6,8.7,13,0.00,,,0.00,WUHU216HW,2013-03-03 17:56:00,
2013-03-03 10:57:00,70.2,15.9,30.03,ENE,68,6.7,8.7,13,0.00,,,0.00,WUHU216HW,2013-03-03 17:57:00,
2013-03-03 10:58:00,70.4,16.1,30.03,ENE,68,3.4,6.9,13,0.00,,,0.00,WUHU216HW,2013-03-03 17:58:00,
2013-03-03 11:00:00,70.4,16.1,30.03,NE,45,4.7,7.6,13,0.00,,,0.00,WUHU216HW,2013-03-03 18:00:00,
2013-03-03 11:01:00,70.6,14.6,30.03,North,0,3.4,7.6,12,0.00,,,0.00,WUHU216HW,2013-03-03 18:01:00,
2013-03-03 11:02:00,70.6,14.6,30.03,North,0,3.4,7.6,12,0.00,,,0.00,WUHU216HW,2013-03-03 18:02:00,
2013-03-03 11:03:00,70.7,14.8,30.03,North,0,2.5,7.6,12,0.00,,,0.00,WUHU216HW,2013-03-03 18:03:00,
2013-03-03 11:05:00,70.9,15.0,30.03,NE,45,5.4,7.6,12,0.00,,,0.00,WUHU216HW,2013-03-03 18:05:00,
2013-03-03 11:06:00,71.1,15.0,30.03,NE,45,4.9,7.6,12,0.00,,,0.00,WUHU216HW,2013-03-03 18:06:00,
2013-03-03 11:07:00,71.1,15.0,30.03,NNE,23,3.1,7.6,12,0.00,,,0.00,WUHU216HW,2013-03-03 18:07:00,
2013-03-03 11:08:00,71.3,15.2,30.04,NE,45,2.2,7.6,12,0.00,,,0.00,WUHU216HW,2013-03-03 18:08:00,
2013-03-03 11:10:00,71.3,13.6,30.04,North,0,5.4,6.9,11,0.00,,,0.00,WUHU216HW,2013-03-03 18:10:00,
2013-03-03 11:11:00,71.5,12.1,30.04,NNW,338,5.8,6.9,10,0.00,,,0.00,WUHU216HW,2013-03-03 18:11:00,
2013-03-03 11:12:00,71.5,12.1,30.04,NNW,338,4.3,6.9,10,0.00,,,0.00,WUHU216HW,2013-03-03 18:12:00,
2013-03-03 11:14:00,71.6,12.2,30.04,NNE,23,2.9,6.9,10,0.00,,,0.00,WUHU216HW,2013-03-03 18:14:00,
2013-03-03 11:16:00,71.6,13.9,30.03,NNE,23,6.3,6.7,11,0.00,,,0.00,WUHU216HW,2013-03-03 18:16:00,
2013-03-03 11:17:00,71.6,13.9,30.03,NE,45,5.1,6.7,11,0.00,,,0.00,WUHU216HW,2013-03-03 18:17:00,
2013-03-03 11:19:00,71.8,12.4,30.03,NNE,23,1.8,6.7,10,0.00,,,0.00,WUHU216HW,2013-03-03 18:19:00,
2013-03-03 11:21:00,72.0,14.1,30.03,ENE,68,4.0,6.7,11,0.00,,,0.00,WUHU216HW,2013-03-03 18:21:00,
2013-03-03 11:22:00,72.0,14.1,30.03,NE,45,3.8,6.7,11,0.00,,,0.00,WUHU216HW,2013-03-03 18:22:00,
2013-03-03 11:24:00,72.4,14.4,30.03,East,90,4.7,6.7,11,0.00,,,0.00,WUHU216HW,2013-03-03 18:24:00,
2013-03-03 11:26:00,72.5,14.6,30.03,ESE,113,5.4,6.7,11,0.00,,,0.00,WUHU216HW,2013-03-03 18:26:00,
2013-03-03 11:27:00,72.7,14.8,30.03,SSE,158,4.7,6.7,11,0.00,,,0.00,WUHU216HW,2013-03-03 18:27:00,
2013-03-03 11:29:00,72.9,14.9,30.03,SSW,203,2.9,6.7,11,0.00,,,0.00,WUHU216HW,2013-03-03 18:29:00,
2013-03-03 11:31:00,73.1,13.4,30.03,NW,315,3.8,6.7,8,0.00,,,0.00,WUHU216HW,2013-03-03 18:31:00,
2013-03-03 11:32:00,73.1,13.4,30.03,SSW,203,1.8,6.7,8,0.00,,,0.00,WUHU216HW,2013-03-03 18:32:00,
2013-03-03 11:34:00,73.1,13.4,30.02,NW,315,2.5,6.7,8,0.00,,,0.00,WUHU216HW,2013-03-03 18:34:00,
2013-03-03 11:36:00,73.3,13.5,30.02,NE,45,2.7,5.8,8,0.00,,,0.00,WUHU216HW,2013-03-03 18:36:00,
2013-03-03 11:37:00,73.3,13.5,30.02,West,270,1.8,3.8,8,0.00,,,0.00,WUHU216HW,2013-03-03 18:37:00,
2013-03-03 11:39:00,73.4,13.7,30.02,SW,225,3.6,5.4,7,0.00,,,0.00,WUHU216HW,2013-03-03 18:39:00,
2013-03-03 11:41:00,73.4,13.7,30.02,South,180,2.7,5.4,8,0.00,,,0.00,WUHU216HW,2013-03-03 18:41:00,
2013-03-03 11:42:00,73.6,13.8,30.02,SSW,203,3.1,5.4,8,0.00,,,0.00,WUHU216HW,2013-03-03 18:42:00,
2013-03-03 11:43:00,73.6,13.8,30.02,SSW,203,1.3,5.4,8,0.00,,,0.00,WUHU216HW,2013-03-03 18:43:00,
2013-03-03 11:44:00,73.8,14.0,30.02,SSW,203,9.2,9.2,8,0.00,,,0.00,WUHU216HW,2013-03-03 18:44:00,
2013-03-03 11:46:00,74.3,14.3,30.02,SSW,203,13.4,13.4,6,0.00,,,0.00,WUHU216HW,2013-03-03 18:46:00,
2013-03-03 11:48:00,74.5,14.4,30.01,SSW,203,11.4,13.4,6,0.00,,,0.00,WUHU216HW,2013-03-03 18:48:00,
2013-03-03 11:49:00,74.9,14.7,30.01,SW,225,8.1,13.9,6,0.00,,,0.00,WUHU216HW,2013-03-03 18:49:00,
2013-03-03 11:51:00,75.6,15.2,30.01,SW,225,10.7,13.9,5,0.00,,,0.00,WUHU216HW,2013-03-03 18:51:00,
2013-03-03 11:53:00,75.8,15.4,30.01,SW,225,7.6,13.9,5,0.00,,,0.00,WUHU216HW,2013-03-03 18:53:00,
2013-03-03 11:54:00,75.8,15.4,30.01,WSW,248,10.7,13.9,5,0.00,,,0.00,WUHU216HW,2013-03-03 18:54:00,
2013-03-03 11:57:00,76.0,15.5,30.01,South,180,6.9,13.9,6,0.00,,,0.00,WUHU216HW,2013-03-03 18:57:00,
2013-03-03 11:58:00,76.1,15.7,30.01,SSW,203,9.2,11.4,6,0.00,,,0.00,WUHU216HW,2013-03-03 18:58:00,
2013-03-03 11:59:00,76.1,15.7,30.01,South,180,6.5,11.4,6,0.00,,,0.00,WUHU216HW,2013-03-03 18:59:00,
2013-03-03 12:00:00,76.1,15.7,30.01,South,180,3.4,11.4,6,0.00,,,0.00,WUHU216HW,2013-03-03 19:00:00,
2013-03-03 12:02:00,76.3,15.9,30.00,SSW,203,3.4,11.0,6,0.00,,,0.00,WUHU216HW,2013-03-03 19:02:00,
2013-03-03 12:04:00,76.3,15.9,30.00,SW,225,2.9,11.0,6,0.00,,,0.00,WUHU216HW,2013-03-03 19:04:00,
2013-03-03 12:05:00,76.3,15.9,30.00,South,180,5.4,11.0,6,0.00,,,0.00,WUHU216HW,2013-03-03 19:05:00,
2013-03-03 12:07:00,76.5,15.9,30.00,WSW,248,1.1,9.2,6,0.00,,,0.00,WUHU216HW,2013-03-03 19:07:00,
2013-03-03 12:09:00,76.5,15.9,30.00,WNW,293,6.0,7.6,5,0.00,,,0.00,WUHU216HW,2013-03-03 19:09:00,
2013-03-03 12:10:00,76.5,15.9,30.00,NNW,338,2.9,7.6,5,0.00,,,0.00,WUHU216HW,2013-03-03 19:10:00,
2013-03-03 12:12:00,76.5,15.9,29.99,WSW,248,5.8,6.7,5,0.00,,,0.00,WUHU216HW,2013-03-03 19:12:00,
2013-03-03 12:14:00,76.3,15.9,29.99,North,0,3.4,6.7,5,0.00,,,0.00,WUHU216HW,2013-03-03 19:14:00,
2013-03-03 12:15:00,76.1,15.7,29.99,WNW,293,4.7,6.0,3,0.00,,,0.00,WUHU216HW,2013-03-03 19:15:00,
2013-03-03 12:17:00,76.0,15.5,29.99,NW,315,4.0,6.0,5,0.00,,,0.00,WUHU216HW,2013-03-03 19:17:00,
2013-03-03 12:19:00,75.8,15.4,29.99,NNE,23,0.2,6.0,5,0.00,,,0.00,WUHU216HW,2013-03-03 19:19:00,
2013-03-03 12:20:00,75.8,15.4,29.99,NW,315,1.1,6.0,5,0.00,,,0.00,WUHU216HW,2013-03-03 19:20:00,
2013-03-03 12:23:00,75.8,15.4,29.99,NNE,23,2.5,6.5,5,0.00,,,0.00,WUHU216HW,2013-03-03 19:23:00,
2013-03-03 12:24:00,75.8,15.4,29.99,NNW,338,2.7,6.5,5,0.00,,,0.00,WUHU216HW,2013-03-03 19:24:00,
2013-03-03 12:25:00,76.0,15.5,29.99,WNW,293,2.7,6.5,5,0.00,,,0.00,WUHU216HW,2013-03-03 19:25:00,
2013-03-03 12:28:00,76.0,15.5,29.99,NNW,338,4.0,6.5,5,0.00,,,0.00,WUHU216HW,2013-03-03 19:28:00,
2013-03-03 12:29:00,76.0,15.5,29.99,NW,315,1.6,6.5,5,0.00,,,0.00,WUHU216HW,2013-03-03 19:29:00,
2013-03-03 12:30:00,76.0,15.5,29.99,NNW,338,1.1,6.5,5,0.00,,,0.00,WUHU216HW,2013-03-03 19:30:00,
2013-03-03 12:33:00,76.0,15.5,29.99,NNW,338,1.3,4.3,5,0.00,,,0.00,WUHU216HW,2013-03-03 19:33:00,
2013-03-03 12:34:00,76.1,15.7,29.99,West,270,4.7,5.6,5,0.00,,,0.00,WUHU216HW,2013-03-03 19:34:00,
2013-03-03 12:35:00,76.1,15.7,29.99,WNW,293,4.5,5.6,5,0.00,,,0.00,WUHU216HW,2013-03-03 19:35:00,
2013-03-03 12:38:00,76.3,15.9,29.99,West,270,4.7,5.6,5,0.00,,,0.00,WUHU216HW,2013-03-03 19:38:00,
2013-03-03 12:39:00,76.3,15.9,29.99,NW,315,7.2,7.6,3,0.00,,,0.00,WUHU216HW,2013-03-03 19:39:00,
2013-03-03 12:40:00,76.3,15.9,29.99,NW,315,7.2,7.6,3,0.00,,,0.00,WUHU216HW,2013-03-03 19:40:00,
2013-03-03 12:43:00,76.7,16.1,29.99,WSW,248,8.7,8.7,3,0.00,,,0.00,WUHU216HW,2013-03-03 19:43:00,
2013-03-03 12:44:00,76.7,16.1,29.99,West,270,8.1,11.6,5,0.00,,,0.00,WUHU216HW,2013-03-03 19:44:00,
2013-03-03 12:45:00,76.7,16.1,29.98,SW,225,13.6,13.6,5,0.00,,,0.00,WUHU216HW,2013-03-03 19:45:00,
2013-03-03 12:48:00,76.9,16.2,29.98,WSW,248,8.3,13.6,5,0.00,,,0.00,WUHU216HW,2013-03-03 19:48:00,
2013-03-03 12:50:00,77.0,16.4,29.98,SW,225,12.5,13.6,4,0.00,,,0.00,WUHU216HW,2013-03-03 19:50:00,
2013-03-03 12:53:00,77.4,16.7,29.99,WSW,248,9.4,13.6,3,0.00,,,0.00,WUHU216HW,2013-03-03 19:53:00,
2013-03-03 12:55:00,77.4,16.7,29.98,SSW,203,3.4,13.6,5,0.00,,,0.00,WUHU216HW,2013-03-03 19:55:00,
2013-03-03 12:58:00,77.4,16.7,29.98,WSW,248,10.5,13.2,5,0.00,,,0.00,WUHU216HW,2013-03-03 19:58:00,
2013-03-03 13:00:00,77.6,16.7,29.98,SW,225,6.0,13.0,5,0.00,,,0.00,WUHU216HW,2013-03-03 20:00:00,
2013-03-03 13:01:00,77.8,16.9,29.98,WSW,248,3.6,12.1,5,0.00,,,0.00,WUHU216HW,2013-03-03 20:01:00,
2013-03-03 13:03:00,77.9,17.0,29.98,SW,225,10.5,11.4,3,0.00,,,0.00,WUHU216HW,2013-03-03 20:03:00,
2013-03-03 13:05:00,77.9,17.0,29.98,SW,225,7.8,11.4,4,0.00,,,0.00,WUHU216HW,2013-03-03 20:05:00,
2013-03-03 13:06:00,77.9,17.0,29.98,SSW,203,8.9,11.4,5,0.00,,,0.00,WUHU216HW,2013-03-03 20:06:00,
2013-03-03 13:09:00,78.5,17.4,29.98,SSW,203,12.1,12.8,3,0.00,,,0.00,WUHU216HW,2013-03-03 20:09:00,
2013-03-03 13:10:00,78.5,17.4,29.98,SW,225,11.2,12.8,3,0.00,,,0.00,WUHU216HW,2013-03-03 20:10:00,
2013-03-03 13:11:00,78.5,17.4,29.98,SW,225,13.2,13.2,3,0.00,,,0.00,WUHU216HW,2013-03-03 20:11:00,
2013-03-03 13:14:00,78.5,17.4,29.98,SSW,203,7.6,13.2,3,0.00,,,0.00,WUHU216HW,2013-03-03 20:14:00,
2013-03-03 13:15:00,78.5,17.4,29.98,SW,225,10.1,13.4,4,0.00,,,0.00,WUHU216HW,2013-03-03 20:15:00,
2013-03-03 13:16:00,78.5,17.4,29.98,SW,225,9.8,13.4,5,0.00,,,0.00,WUHU216HW,2013-03-03 20:16:00,
2013-03-03 13:19:00,78.3,17.3,29.98,WSW,248,5.4,17.2,3,0.00,,,0.00,WUHU216HW,2013-03-03 20:19:00,
2013-03-03 13:20:00,78.1,17.1,29.98,WSW,248,3.8,17.2,5,0.00,,,0.00,WUHU216HW,2013-03-03 20:20:00,
2013-03-03 13:21:00,78.1,17.1,29.97,WSW,248,4.5,17.2,5,0.00,,,0.00,WUHU216HW,2013-03-03 20:21:00,
2013-03-03 13:24:00,78.3,17.3,29.97,SW,225,13.4,17.2,3,0.00,,,0.00,WUHU216HW,2013-03-03 20:24:00,
2013-03-03 13:25:00,78.3,17.3,29.98,SW,225,6.3,17.2,5,0.00,,,0.00,WUHU216HW,2013-03-03 20:25:00,
2013-03-03 13:26:00,78.3,17.3,29.98,WSW,248,7.6,17.2,3,0.00,,,0.00,WUHU216HW,2013-03-03 20:26:00,
2013-03-03 13:27:00,78.3,17.3,29.98,WNW,293,14.1,17.2,5,0.00,,,0.00,WUHU216HW,2013-03-03 20:27:00,
2013-03-03 13:29:00,78.1,17.1,29.98,West,270,7.8,15.7,5,0.00,,,0.00,WUHU216HW,2013-03-03 20:29:00,
2013-03-03 13:30:00,77.9,17.0,29.98,SW,225,7.2,15.7,3,0.00,,,0.00,WUHU216HW,2013-03-03 20:30:00,
2013-03-03 13:31:00,77.8,16.9,29.97,WSW,248,10.1,15.7,4,0.00,,,0.00,WUHU216HW,2013-03-03 20:31:00,
2013-03-03 13:32:00,77.8,16.9,29.97,WSW,248,10.5,15.7,3,0.00,,,0.00,WUHU216HW,2013-03-03 20:32:00,
2013-03-03 13:35:00,77.8,16.9,29.97,WSW,248,17.2,17.2,3,0.00,,,0.00,WUHU216HW,2013-03-03 20:35:00,
2013-03-03 13:36:00,77.8,16.9,29.97,West,270,20.8,20.8,3,0.00,,,0.00,WUHU216HW,2013-03-03 20:36:00,
2013-03-03 13:37:00,77.8,16.9,29.97,West,270,19.0,20.8,3,0.00,,,0.00,WUHU216HW,2013-03-03 20:37:00,
2013-03-03 13:40:00,77.6,16.7,29.97,West,270,4.5,20.8,3,0.00,,,0.00,WUHU216HW,2013-03-03 20:40:00,
2013-03-03 13:42:00,77.2,16.5,29.97,West,270,5.4,20.8,3,0.00,,,0.00,WUHU216HW,2013-03-03 20:42:00,
2013-03-03 13:45:00,77.4,16.7,29.97,West,270,9.2,20.8,3,0.00,,,0.00,WUHU216HW,2013-03-03 20:45:00,
2013-03-03 13:47:00,77.8,16.9,29.97,NW,315,5.8,19.0,3,0.00,,,0.00,WUHU216HW,2013-03-03 20:47:00,
2013-03-03 13:50:00,77.8,16.9,29.97,WNW,293,7.8,17.7,3,0.00,,,0.00,WUHU216HW,2013-03-03 20:50:00,
2013-03-03 13:51:00,77.8,16.9,29.97,WNW,293,11.0,17.7,3,0.00,,,0.00,WUHU216HW,2013-03-03 20:51:00,
2013-03-03 13:52:00,77.8,16.9,29.97,WSW,248,13.2,17.7,3,0.00,,,0.00,WUHU216HW,2013-03-03 20:52:00,
2013-03-03 13:53:00,77.8,16.9,29.97,WSW,248,14.8,17.7,3,0.00,,,0.00,WUHU216HW,2013-03-03 20:53:00,
2013-03-03 13:55:00,77.6,16.7,29.97,WNW,293,4.7,17.7,3,0.00,,,0.00,WUHU216HW,2013-03-03 20:55:00,
2013-03-03 13:56:00,77.6,16.7,29.97,West,270,2.7,17.7,3,0.00,,,0.00,WUHU216HW,2013-03-03 20:56:00,
2013-03-03 13:57:00,77.6,16.7,29.97,West,270,8.3,17.7,3,0.00,,,0.00,WUHU216HW,2013-03-03 20:57:00,
2013-03-03 13:58:00,77.6,16.7,29.97,WSW,248,7.6,17.2,3,0.00,,,0.00,WUHU216HW,2013-03-03 20:58:00,
2013-03-03 14:00:00,77.8,16.9,29.97,NW,315,9.8,17.2,3,0.00,,,0.00,WUHU216HW,2013-03-03 21:00:00,
2013-03-03 14:01:00,77.8,16.9,29.96,West,270,5.8,17.2,3,0.00,,,0.00,WUHU216HW,2013-03-03 21:01:00,
2013-03-03 14:02:00,77.8,16.9,29.96,West,270,11.4,16.1,3,0.00,,,0.00,WUHU216HW,2013-03-03 21:02:00,
2013-03-03 14:03:00,77.8,16.9,29.96,West,270,10.5,16.1,3,0.00,,,0.00,WUHU216HW,2013-03-03 21:03:00,
2013-03-03 14:05:00,77.8,16.9,29.96,West,270,12.8,16.1,3,0.00,,,0.00,WUHU216HW,2013-03-03 21:05:00,
2013-03-03 14:06:00,77.8,16.9,29.96,West,270,14.3,16.1,3,0.00,,,0.00,WUHU216HW,2013-03-03 21:06:00,
2013-03-03 14:07:00,77.8,16.9,29.97,WNW,293,16.3,16.3,3,0.00,,,0.00,WUHU216HW,2013-03-03 21:07:00,
2013-03-03 14:08:00,77.8,16.9,29.96,WSW,248,17.2,17.9,2,0.00,,,0.00,WUHU216HW,2013-03-03 21:08:00,
2013-03-03 14:10:00,77.8,16.9,29.96,West,270,12.3,17.9,2,0.00,,,0.00,WUHU216HW,2013-03-03 21:10:00,
2013-03-03 14:11:00,77.8,16.9,29.96,WNW,293,6.5,17.9,2,0.00,,,0.00,WUHU216HW,2013-03-03 21:11:00,
2013-03-03 14:12:00,77.6,16.7,29.96,NNW,338,6.9,17.9,2,0.00,,,0.00,WUHU216HW,2013-03-03 21:12:00,
2013-03-03 14:14:00,77.4,16.7,29.96,NNW,338,4.9,17.9,2,0.00,,,0.00,WUHU216HW,2013-03-03 21:14:00,
2013-03-03 14:15:00,77.2,16.5,29.96,WNW,293,11.4,17.9,3,0.00,,,0.00,WUHU216HW,2013-03-03 21:15:00,
2013-03-03 14:16:00,77.2,16.5,29.96,NW,315,10.3,17.9,3,0.00,,,0.00,WUHU216HW,2013-03-03 21:16:00,
2013-03-03 14:17:00,77.0,16.4,29.96,North,0,7.6,17.9,3,0.00,,,0.00,WUHU216HW,2013-03-03 21:17:00,
2013-03-03 14:19:00,77.0,16.4,29.96,WNW,293,9.6,15.0,3,0.00,,,0.00,WUHU216HW,2013-03-03 21:19:00,
2013-03-03 14:20:00,77.0,16.4,29.96,WSW,248,13.4,15.0,3,0.00,,,0.00,WUHU216HW,2013-03-03 21:20:00,
2013-03-03 14:21:00,77.0,16.4,29.96,SW,225,13.2,18.1,3,0.00,,,0.00,WUHU216HW,2013-03-03 21:21:00,
2013-03-03 14:22:00,77.2,16.5,29.96,WSW,248,10.5,18.1,3,0.00,,,0.00,WUHU216HW,2013-03-03 21:22:00,
2013-03-03 14:24:00,77.2,16.5,29.96,WSW,248,11.4,18.1,3,0.00,,,0.00,WUHU216HW,2013-03-03 21:24:00,
2013-03-03 14:25:00,77.4,16.7,29.96,WSW,248,11.4,18.1,3,0.00,,,0.00,WUHU216HW,2013-03-03 21:25:00,
2013-03-03 14:26:00,77.2,16.5,29.96,West,270,9.8,18.1,3,0.00,,,0.00,WUHU216HW,2013-03-03 21:26:00,
2013-03-03 14:27:00,77.4,16.7,29.96,SW,225,11.4,18.1,3,0.00,,,0.00,WUHU216HW,2013-03-03 21:27:00,
2013-03-03 14:31:00,77.8,16.9,29.96,SW,225,8.1,18.1,3,0.00,,,0.00,WUHU216HW,2013-03-03 21:31:00,
2013-03-03 14:32:00,77.8,16.9,29.96,WSW,248,6.9,15.9,3,0.00,,,0.00,WUHU216HW,2013-03-03 21:32:00,
2013-03-03 14:33:00,77.8,16.9,29.96,NW,315,5.4,15.9,3,0.00,,,0.00,WUHU216HW,2013-03-03 21:33:00,
2013-03-03 14:36:00,77.8,16.9,29.96,NW,315,5.4,15.9,3,0.00,,,0.00,WUHU216HW,2013-03-03 21:36:00,
2013-03-03 14:37:00,78.1,17.1,29.96,WNW,293,7.8,15.9,2,0.00,,,0.00,WUHU216HW,2013-03-03 21:37:00,
2013-03-03 14:38:00,77.9,17.0,29.96,WSW,248,13.4,15.0,2,0.00,,,0.00,WUHU216HW,2013-03-03 21:38:00,
2013-03-03 14:41:00,77.6,16.7,29.96,WSW,248,12.1,19.2,3,0.00,,,0.00,WUHU216HW,2013-03-03 21:41:00,
2013-03-03 14:42:00,77.6,16.7,29.96,West,270,12.8,19.2,2,0.00,,,0.00,WUHU216HW,2013-03-03 21:42:00,
2013-03-03 14:43:00,77.6,16.7,29.96,West,270,11.2,19.2,3,0.00,,,0.00,WUHU216HW,2013-03-03 21:43:00,
2013-03-03 14:46:00,77.6,16.7,29.96,WSW,248,13.9,19.2,2,0.00,,,0.00,WUHU216HW,2013-03-03 21:46:00,
2013-03-03 14:47:00,77.6,16.7,29.96,WSW,248,9.2,19.2,2,0.00,,,0.00,WUHU216HW,2013-03-03 21:47:00,
2013-03-03 14:48:00,77.4,16.7,29.96,WSW,248,10.1,19.2,2,0.00,,,0.00,WUHU216HW,2013-03-03 21:48:00,
2013-03-03 14:51:00,77.6,16.7,29.96,WNW,293,11.9,17.9,2,0.00,,,0.00,WUHU216HW,2013-03-03 21:51:00,
2013-03-03 14:52:00,77.6,16.7,29.96,West,270,15.0,17.9,2,0.00,,,0.00,WUHU216HW,2013-03-03 21:52:00,
2013-03-03 14:53:00,77.8,16.9,29.96,West,270,13.6,17.9,2,0.00,,,0.00,WUHU216HW,2013-03-03 21:53:00,
2013-03-03 14:56:00,77.8,16.9,29.96,West,270,18.6,18.6,2,0.00,,,0.00,WUHU216HW,2013-03-03 21:56:00,
2013-03-03 14:57:00,77.6,16.7,29.96,WSW,248,13.0,18.6,2,0.00,,,0.00,WUHU216HW,2013-03-03 21:57:00,
2013-03-03 14:58:00,77.8,16.9,29.96,West,270,17.2,19.5,2,0.00,,,0.00,WUHU216HW,2013-03-03 21:58:00,
2013-03-03 15:01:00,77.4,16.7,29.95,WNW,293,15.4,21.0,2,0.00,,,0.00,WUHU216HW,2013-03-03 22:01:00,
2013-03-03 15:02:00,77.4,16.7,29.95,NW,315,15.7,21.0,2,0.00,,,0.00,WUHU216HW,2013-03-03 22:02:00,
2013-03-03 15:03:00,77.4,16.7,29.96,WNW,293,21.5,26.4,2,0.00,,,0.00,WUHU216HW,2013-03-03 22:03:00,
2013-03-03 15:06:00,77.2,16.5,29.96,West,270,9.8,26.4,2,0.00,,,0.00,WUHU216HW,2013-03-03 22:06:00,
2013-03-03 15:07:00,77.2,16.5,29.96,WNW,293,8.9,26.4,2,0.00,,,0.00,WUHU216HW,2013-03-03 22:07:00,
2013-03-03 15:08:00,77.0,16.4,29.96,WSW,248,7.6,26.4,2,0.00,,,0.00,WUHU216HW,2013-03-03 22:08:00,
2013-03-03 15:11:00,76.7,16.1,29.96,West,270,17.2,26.4,3,0.00,,,0.00,WUHU216HW,2013-03-03 22:11:00,
2013-03-03 15:12:00,76.5,15.9,29.96,West,270,17.2,26.4,3,0.00,,,0.00,WUHU216HW,2013-03-03 22:12:00,
2013-03-03 15:13:00,76.3,15.9,29.96,West,270,13.6,20.4,3,0.00,,,0.00,WUHU216HW,2013-03-03 22:13:00,
2013-03-03 15:17:00,75.6,15.2,29.96,WSW,248,15.0,19.9,3,0.00,,,0.00,WUHU216HW,2013-03-03 22:17:00,
2013-03-03 15:18:00,75.4,15.1,29.96,WNW,293,10.7,19.9,3,0.00,,,0.00,WUHU216HW,2013-03-03 22:18:00,
2013-03-03 15:22:00,74.9,14.7,29.97,WSW,248,13.9,17.9,4,0.00,,,0.00,WUHU216HW,2013-03-03 22:22:00,
2013-03-03 15:23:00,75.1,14.9,29.97,West,270,11.6,17.9,3,0.00,,,0.00,WUHU216HW,2013-03-03 22:23:00,
2013-03-03 15:27:00,75.2,14.9,29.97,WSW,248,11.4,17.9,5,0.00,,,0.00,WUHU216HW,2013-03-03 22:27:00,
2013-03-03 15:28:00,75.4,15.1,29.97,West,270,10.7,17.9,5,0.00,,,0.00,WUHU216HW,2013-03-03 22:28:00,
2013-03-03 15:32:00,75.6,15.2,29.96,West,270,16.1,17.2,4,0.00,,,0.00,WUHU216HW,2013-03-03 22:32:00,
2013-03-03 15:33:00,75.8,15.4,29.96,West,270,13.4,17.0,5,0.00,,,0.00,WUHU216HW,2013-03-03 22:33:00,
2013-03-03 15:38:00,75.8,15.4,29.97,West,270,9.8,17.0,3,0.00,,,0.00,WUHU216HW,2013-03-03 22:38:00,
2013-03-03 15:39:00,76.0,15.5,29.97,West,270,17.2,17.2,5,0.00,,,0.00,WUHU216HW,2013-03-03 22:39:00,
2013-03-03 15:43:00,76.1,15.7,29.96,West,270,11.0,17.4,3,0.00,,,0.00,WUHU216HW,2013-03-03 22:43:00,
2013-03-03 15:44:00,76.1,15.7,29.96,West,270,11.6,17.4,4,0.00,,,0.00,WUHU216HW,2013-03-03 22:44:00,
2013-03-03 15:48:00,76.1,15.7,29.96,West,270,9.6,17.4,3,0.00,,,0.00,WUHU216HW,2013-03-03 22:48:00,
2013-03-03 15:49:00,76.0,15.5,29.96,WSW,248,9.8,17.4,3,0.00,,,0.00,WUHU216HW,2013-03-03 22:49:00,
2013-03-03 15:53:00,76.3,15.9,29.97,West,270,6.9,15.7,3,0.00,,,0.00,WUHU216HW,2013-03-03 22:53:00,
2013-03-03 15:54:00,76.3,15.9,29.97,West,270,6.9,15.7,5,0.00,,,0.00,WUHU216HW,2013-03-03 22:54:00,
2013-03-03 15:58:00,76.3,15.9,29.96,WSW,248,11.9,15.7,3,0.00,,,0.00,WUHU216HW,2013-03-03 22:58:00,
2013-03-03 15:59:00,76.1,15.7,29.96,West,270,13.0,14.1,3,0.00,,,0.00,WUHU216HW,2013-03-03 22:59:00,
2013-03-03 16:03:00,76.0,15.5,29.97,West,270,8.5,14.1,3,0.00,,,0.00,WUHU216HW,2013-03-03 23:03:00,
2013-03-03 16:04:00,76.0,15.5,29.97,WSW,248,10.5,14.1,3,0.00,,,0.00,WUHU216HW,2013-03-03 23:04:00,
2013-03-03 16:05:00,76.0,15.5,29.97,SW,225,7.6,14.1,3,0.00,,,0.00,WUHU216HW,2013-03-03 23:05:00,
2013-03-03 16:08:00,76.1,15.7,29.96,WSW,248,6.9,14.1,5,0.00,,,0.00,WUHU216HW,2013-03-03 23:08:00,
2013-03-03 16:09:00,76.1,15.7,29.96,WSW,248,11.2,14.1,5,0.00,,,0.00,WUHU216HW,2013-03-03 23:09:00,
2013-03-03 16:10:00,76.3,15.9,29.96,WSW,248,13.4,14.3,3,0.00,,,0.00,WUHU216HW,2013-03-03 23:10:00,
2013-03-03 16:13:00,76.3,15.9,29.96,SW,225,8.1,15.2,3,0.00,,,0.00,WUHU216HW,2013-03-03 23:13:00,
2013-03-03 16:14:00,76.1,15.7,29.96,South,180,11.9,15.2,3,0.00,,,0.00,WUHU216HW,2013-03-03 23:14:00,
2013-03-03 16:15:00,76.3,15.9,29.96,SW,225,12.1,15.2,4,0.00,,,0.00,WUHU216HW,2013-03-03 23:15:00,
2013-03-03 16:18:00,76.0,15.5,29.96,WSW,248,6.7,16.8,3,0.00,,,0.00,WUHU216HW,2013-03-03 23:18:00,
2013-03-03 16:19:00,76.0,15.5,29.96,West,270,7.4,16.8,3,0.00,,,0.00,WUHU216HW,2013-03-03 23:19:00,
2013-03-03 16:20:00,76.0,15.5,29.96,West,270,4.7,16.8,3,0.00,,,0.00,WUHU216HW,2013-03-03 23:20:00,
2013-03-03 16:23:00,76.0,15.5,29.96,WSW,248,12.1,16.8,3,0.00,,,0.00,WUHU216HW,2013-03-03 23:23:00,
2013-03-03 16:24:00,76.0,15.5,29.97,WSW,248,11.4,16.8,3,0.00,,,0.00,WUHU216HW,2013-03-03 23:24:00,
2013-03-03 16:25:00,76.0,15.5,29.97,West,270,5.1,16.8,3,0.00,,,0.00,WUHU216HW,2013-03-03 23:25:00,
2013-03-03 16:28:00,75.6,15.2,29.96,West,270,15.0,15.2,3,0.00,,,0.00,WUHU216HW,2013-03-03 23:28:00,
2013-03-03 16:29:00,75.6,15.2,29.96,WSW,248,9.4,15.2,3,0.00,,,0.00,WUHU216HW,2013-03-03 23:29:00,
2013-03-03 16:30:00,75.6,15.2,29.96,West,270,13.0,15.2,4,0.00,,,0.00,WUHU216HW,2013-03-03 23:30:00,
2013-03-03 16:34:00,75.4,15.1,29.96,West,270,13.4,15.0,3,0.00,,,0.00,WUHU216HW,2013-03-03 23:34:00,
2013-03-03 16:35:00,75.4,15.1,29.96,West,270,8.5,15.0,3,0.00,,,0.00,WUHU216HW,2013-03-03 23:35:00,
2013-03-03 16:39:00,75.2,14.9,29.96,West,270,7.8,14.8,5,0.00,,,0.00,WUHU216HW,2013-03-03 23:39:00,
2013-03-03 16:40:00,75.2,14.9,29.96,WSW,248,12.1,14.8,3,0.00,,,0.00,WUHU216HW,2013-03-03 23:40:00,
2013-03-03 16:44:00,74.9,14.7,29.96,WSW,248,12.1,16.1,5,0.00,,,0.00,WUHU216HW,2013-03-03 23:44:00,
2013-03-03 16:45:00,74.9,14.7,29.96,WSW,248,8.5,16.1,5,0.00,,,0.00,WUHU216HW,2013-03-03 23:45:00,
2013-03-03 16:49:00,74.7,14.6,29.96,WSW,248,9.2,16.1,5,0.00,,,0.00,WUHU216HW,2013-03-03 23:49:00,
2013-03-03 16:50:00,74.9,14.7,29.96,WSW,248,10.5,16.1,5,0.00,,,0.00,WUHU216HW,2013-03-03 23:50:00,
2013-03-03 16:54:00,74.9,14.7,29.96,WSW,248,9.6,17.2,5,0.00,,,0.00,WUHU216HW,2013-03-03 23:54:00,
2013-03-03 16:55:00,74.9,14.7,29.96,WSW,248,8.7,17.2,5,0.00,,,0.00,WUHU216HW,2013-03-03 23:55:00,
2013-03-03 16:59:00,74.7,14.6,29.96,West,270,10.5,17.2,5,0.00,,,0.00,WUHU216HW,2013-03-03 23:59:00,
2013-03-03 17:00:00,74.5,14.4,29.96,West,270,12.1,17.2,5,0.00,,,0.00,WUHU216HW,2013-03-04 00:00:00,
2013-03-03 17:01:00,74.5,14.4,29.96,West,270,7.8,17.2,5,0.00,,,0.00,WUHU216HW,2013-03-04 00:01:00,
2013-03-03 17:04:00,74.2,14.2,29.96,WNW,293,12.1,15.0,5,0.00,,,0.00,WUHU216HW,2013-03-04 00:04:00,
2013-03-03 17:05:00,74.2,14.2,29.96,West,270,9.8,15.0,5,0.00,,,0.00,WUHU216HW,2013-03-04 00:05:00,
2013-03-03 17:06:00,74.0,14.0,29.96,WNW,293,9.6,15.0,5,0.00,,,0.00,WUHU216HW,2013-03-04 00:06:00,
2013-03-03 17:09:00,73.4,13.7,29.96,WSW,248,4.0,15.0,5,0.00,,,0.00,WUHU216HW,2013-03-04 00:09:00,
2013-03-03 17:10:00,73.3,13.5,29.97,West,270,6.3,12.1,5,0.00,,,0.00,WUHU216HW,2013-03-04 00:10:00,
2013-03-03 17:11:00,73.1,13.4,29.96,WNW,293,8.1,12.1,5,0.00,,,0.00,WUHU216HW,2013-03-04 00:11:00,
2013-03-03 17:14:00,72.7,13.2,29.96,WSW,248,6.9,10.5,5,0.00,,,0.00,WUHU216HW,2013-03-04 00:14:00,
2013-03-03 17:15:00,72.5,13.0,29.96,West,270,12.5,12.5,5,0.00,,,0.00,WUHU216HW,2013-03-04 00:15:00,
2013-03-03 17:16:00,72.4,12.8,29.96,West,270,12.1,16.3,5,0.00,,,0.00,WUHU216HW,2013-03-04 00:16:00,
2013-03-03 17:19:00,72.0,12.5,29.96,WSW,248,10.1,16.3,5,0.00,,,0.00,WUHU216HW,2013-03-04 00:19:00,
2013-03-03 17:20:00,72.0,12.5,29.96,West,270,10.1,16.3,5,0.00,,,0.00,WUHU216HW,2013-03-04 00:20:00,
2013-03-03 17:21:00,71.8,12.4,29.96,WSW,248,9.4,16.3,5,0.00,,,0.00,WUHU216HW,2013-03-04 00:21:00,
2013-03-03 17:25:00,71.6,12.2,29.96,West,270,6.3,16.3,6,0.00,,,0.00,WUHU216HW,2013-03-04 00:25:00,
2013-03-03 17:27:00,71.6,12.2,29.96,West,270,8.9,13.6,5,0.00,,,0.00,WUHU216HW,2013-03-04 00:27:00,
2013-03-03 17:30:00,71.3,12.0,29.96,WSW,248,3.6,10.7,6,0.00,,,0.00,WUHU216HW,2013-03-04 00:30:00,
2013-03-03 17:31:00,71.3,12.0,29.96,WSW,248,4.0,9.6,6,0.00,,,0.00,WUHU216HW,2013-03-04 00:31:00,
2013-03-03 17:32:00,71.3,12.0,29.96,SW,225,8.3,9.6,6,0.00,,,0.00,WUHU216HW,2013-03-04 00:32:00,
2013-03-03 17:35:00,71.6,12.2,29.96,SW,225,3.8,9.6,6,0.00,,,0.00,WUHU216HW,2013-03-04 00:35:00,
2013-03-03 17:36:00,71.8,12.4,29.96,WSW,248,3.8,9.6,6,0.00,,,0.00,WUHU216HW,2013-03-04 00:36:00,
2013-03-03 17:37:00,72.0,12.5,29.96,SW,225,3.8,9.2,6,0.00,,,0.00,WUHU216HW,2013-03-04 00:37:00,
2013-03-03 17:40:00,72.7,13.2,29.96,SW,225,2.7,9.2,6,0.00,,,0.00,WUHU216HW,2013-03-04 00:40:00,
2013-03-03 17:41:00,72.7,13.2,29.96,SW,225,3.4,9.2,6,0.00,,,0.00,WUHU216HW,2013-03-04 00:41:00,
2013-03-03 17:42:00,72.7,13.2,29.96,WSW,248,1.6,9.2,6,0.00,,,0.00,WUHU216HW,2013-03-04 00:42:00,
2013-03-03 17:45:00,72.5,13.0,29.96,West,270,3.1,5.4,6,0.00,,,0.00,WUHU216HW,2013-03-04 00:45:00,
2013-03-03 17:46:00,72.5,13.0,29.96,West,270,2.5,5.4,6,0.00,,,0.00,WUHU216HW,2013-03-04 00:46:00,
2013-03-03 17:47:00,72.4,12.8,29.96,WSW,248,5.1,5.4,6,0.00,,,0.00,WUHU216HW,2013-03-04 00:47:00,
2013-03-03 17:50:00,72.0,12.5,29.96,WSW,248,4.3,6.0,6,0.00,,,0.00,WUHU216HW,2013-03-04 00:50:00,
2013-03-03 17:51:00,71.8,12.4,29.96,WSW,248,3.1,6.7,6,0.00,,,0.00,WUHU216HW,2013-03-04 00:51:00,
2013-03-03 17:52:00,71.8,12.4,29.96,WSW,248,6.0,6.7,6,0.00,,,0.00,WUHU216HW,2013-03-04 00:52:00,
2013-03-03 17:56:00,71.3,12.0,29.96,SSW,203,3.1,7.6,6,0.00,,,0.00,WUHU216HW,2013-03-04 00:56:00,
2013-03-03 17:57:00,71.1,11.8,29.96,West,270,3.4,7.6,6,0.00,,,0.00,WUHU216HW,2013-03-04 00:57:00,
2013-03-03 18:01:00,70.7,11.5,29.96,SSW,203,4.0,7.6,7,0.00,,,0.00,WUHU216HW,2013-03-04 01:01:00,
2013-03-03 18:02:00,70.6,11.3,29.96,SW,225,6.7,6.9,7,0.00,,,0.00,WUHU216HW,2013-03-04 01:02:00,
2013-03-03 18:03:00,70.6,11.3,29.96,WSW,248,4.0,6.9,7,0.00,,,0.00,WUHU216HW,2013-03-04 01:03:00,
2013-03-03 18:06:00,70.2,11.1,29.96,WSW,248,8.3,8.3,7,0.00,,,0.00,WUHU216HW,2013-03-04 01:06:00,
2013-03-03 18:08:00,69.8,10.8,29.96,SW,225,4.3,8.3,7,0.00,,,0.00,WUHU216HW,2013-03-04 01:08:00,
2013-03-03 18:11:00,69.7,10.7,29.96,WSW,248,3.1,8.3,7,0.00,,,0.00,WUHU216HW,2013-03-04 01:11:00,
2013-03-03 18:13:00,69.5,10.5,29.96,SW,225,2.5,8.3,7,0.00,,,0.00,WUHU216HW,2013-03-04 01:13:00,
2013-03-03 18:16:00,69.1,10.3,29.96,West,270,6.7,7.2,7,0.00,,,0.00,WUHU216HW,2013-03-04 01:16:00,
2013-03-03 18:17:00,69.1,10.3,29.96,West,270,5.1,7.2,7,0.00,,,0.00,WUHU216HW,2013-03-04 01:17:00,
2013-03-03 18:18:00,68.9,10.2,29.96,WSW,248,2.5,6.7,7,0.00,,,0.00,WUHU216HW,2013-03-04 01:18:00,
2013-03-03 18:21:00,68.6,9.9,29.96,SW,225,3.1,6.7,7,0.00,,,0.00,WUHU216HW,2013-03-04 01:21:00,
2013-03-03 18:22:00,68.6,9.9,29.96,SSW,203,2.7,6.7,7,0.00,,,0.00,WUHU216HW,2013-03-04 01:22:00,
2013-03-03 18:23:00,68.4,9.8,29.96,SW,225,6.5,6.7,7,0.00,,,0.00,WUHU216HW,2013-03-04 01:23:00,
2013-03-03 18:26:00,68.0,9.5,29.96,WSW,248,2.9,6.7,7,0.00,,,0.00,WUHU216HW,2013-03-04 01:26:00,
2013-03-03 18:27:00,68.0,9.5,29.96,SW,225,2.5,6.5,7,0.00,,,0.00,WUHU216HW,2013-03-04 01:27:00,
2013-03-03 18:28:00,67.9,9.4,29.96,WSW,248,1.8,6.5,7,0.00,,,0.00,WUHU216HW,2013-03-04 01:28:00,
2013-03-03 18:31:00,67.7,9.3,29.96,SSE,158,0.4,6.5,7,0.00,,,0.00,WUHU216HW,2013-03-04 01:31:00,
2013-03-03 18:32:00,67.7,9.3,29.96,SSW,203,1.6,6.5,7,0.00,,,0.00,WUHU216HW,2013-03-04 01:32:00,
2013-03-03 18:34:00,67.7,9.3,29.96,SW,225,1.8,6.5,8,0.00,,,0.00,WUHU216HW,2013-03-04 01:34:00,
2013-03-03 18:36:00,67.5,9.1,29.96,WNW,293,0.4,3.4,8,0.00,,,0.00,WUHU216HW,2013-03-04 01:36:00,
2013-03-03 18:37:00,67.5,9.1,29.96,SW,225,1.1,3.4,8,0.00,,,0.00,WUHU216HW,2013-03-04 01:37:00,
2013-03-03 18:39:00,67.3,9.0,29.96,WSW,248,1.8,4.7,8,0.00,,,0.00,WUHU216HW,2013-03-04 01:39:00,
2013-03-03 18:41:00,67.3,9.0,29.96,WNW,293,0.0,4.7,8,0.00,,,0.00,WUHU216HW,2013-03-04 01:41:00,
2013-03-03 18:42:00,67.1,8.8,29.96,SSE,158,1.3,4.7,8,0.00,,,0.00,WUHU216HW,2013-03-04 01:42:00,
2013-03-03 18:44:00,67.0,8.6,29.96,SSW,203,3.4,4.7,8,0.00,,,0.00,WUHU216HW,2013-03-04 01:44:00,
2013-03-03 18:46:00,66.8,8.6,29.96,WNW,293,2.5,4.7,8,0.00,,,0.00,WUHU216HW,2013-03-04 01:46:00,
2013-03-03 18:47:00,66.6,8.4,29.96,WNW,293,2.7,4.7,8,0.00,,,0.00,WUHU216HW,2013-03-04 01:47:00,
2013-03-03 18:49:00,66.4,8.3,29.96,WSW,248,2.9,3.8,8,0.00,,,0.00,WUHU216HW,2013-03-04 01:49:00,
2013-03-03 18:51:00,66.1,7.9,29.96,WSW,248,2.5,4.3,8,0.00,,,0.00,WUHU216HW,2013-03-04 01:51:00,
2013-03-03 18:52:00,66.1,7.9,29.96,WSW,248,0.7,4.3,8,0.00,,,0.00,WUHU216HW,2013-03-04 01:52:00,
2013-03-03 18:54:00,65.9,7.8,29.96,WSW,248,1.6,4.3,8,0.00,,,0.00,WUHU216HW,2013-03-04 01:54:00,
2013-03-03 18:56:00,65.7,7.7,29.96,WSW,248,4.7,5.4,8,0.00,,,0.00,WUHU216HW,2013-03-04 01:56:00,
2013-03-03 18:57:00,65.7,7.7,29.96,SW,225,2.9,5.4,8,0.00,,,0.00,WUHU216HW,2013-03-04 01:57:00,
2013-03-03 18:59:00,65.5,7.6,29.96,SW,225,4.9,5.4,9,0.00,,,0.00,WUHU216HW,2013-03-04 01:59:00,
2013-03-03 19:01:00,65.2,7.2,29.96,SW,225,6.3,6.5,8,0.00,,,0.00,WUHU216HW,2013-03-04 02:01:00,
2013-03-03 19:02:00,65.2,7.2,29.96,West,270,5.6,6.5,8,0.00,,,0.00,WUHU216HW,2013-03-04 02:02:00,
2013-03-03 19:04:00,65.2,7.2,29.97,SW,225,2.5,6.5,8,0.00,,,0.00,WUHU216HW,2013-03-04 02:04:00,
2013-03-03 19:05:00,65.2,7.2,29.97,WSW,248,2.5,6.5,8,0.00,,,0.00,WUHU216HW,2013-03-04 02:05:00,
2013-03-03 19:07:00,65.0,7.1,29.97,WSW,248,3.8,6.5,8,0.00,,,0.00,WUHU216HW,2013-03-04 02:07:00,
2013-03-03 19:10:00,64.8,6.9,29.97,WSW,248,4.5,6.5,10,0.00,,,0.00,WUHU216HW,2013-03-04 02:10:00,
2013-03-03 19:12:00,64.6,6.9,29.97,WSW,248,3.6,5.6,10,0.00,,,0.00,WUHU216HW,2013-03-04 02:12:00,
2013-03-03 19:15:00,64.4,6.7,29.97,WSW,248,2.0,5.4,10,0.00,,,0.00,WUHU216HW,2013-03-04 02:15:00,
2013-03-03 19:17:00,64.3,6.6,29.97,WSW,248,3.4,5.4,10,0.00,,,0.00,WUHU216HW,2013-03-04 02:17:00,
2013-03-03 19:18:00,64.1,6.4,29.97,West,270,3.1,5.4,10,0.00,,,0.00,WUHU216HW,2013-03-04 02:18:00,
2013-03-03 19:20:00,63.9,6.3,29.97,WSW,248,5.1,6.5,10,0.00,,,0.00,WUHU216HW,2013-03-04 02:20:00,
2013-03-03 19:22:00,63.7,6.1,29.97,WSW,248,4.3,6.5,10,0.00,,,0.00,WUHU216HW,2013-03-04 02:22:00,
2013-03-03 19:23:00,63.7,6.1,29.97,WSW,248,3.4,6.5,10,0.00,,,0.00,WUHU216HW,2013-03-04 02:23:00,
2013-03-03 19:25:00,63.7,6.1,29.97,WSW,248,4.0,6.5,10,0.00,,,0.00,WUHU216HW,2013-03-04 02:25:00,
2013-03-03 19:27:00,63.5,6.0,29.97,West,270,1.1,6.5,10,0.00,,,0.00,WUHU216HW,2013-03-04 02:27:00,
2013-03-03 19:28:00,63.5,6.0,29.97,NW,315,0.7,6.5,10,0.00,,,0.00,WUHU216HW,2013-03-04 02:28:00,
2013-03-03 19:30:00,63.4,6.0,29.97,NW,315,1.1,6.0,10,0.00,,,0.00,WUHU216HW,2013-03-04 02:30:00,
2013-03-03 19:32:00,63.4,6.0,29.97,NNW,338,1.6,4.7,10,0.00,,,0.00,WUHU216HW,2013-03-04 02:32:00,
2013-03-03 19:33:00,63.2,5.8,29.97,NNW,338,1.8,4.7,10,0.00,,,0.00,WUHU216HW,2013-03-04 02:33:00,
2013-03-03 19:35:00,63.2,7.4,29.97,North,0,2.5,4.0,11,0.00,,,0.00,WUHU216HW,2013-03-04 02:35:00,
2013-03-03 19:37:00,63.0,5.7,29.97,North,0,2.9,4.3,10,0.00,,,0.00,WUHU216HW,2013-03-04 02:37:00,
2013-03-03 19:38:00,63.0,7.2,29.97,NNW,338,2.0,4.3,11,0.00,,,0.00,WUHU216HW,2013-03-04 02:38:00,
2013-03-03 19:40:00,63.0,7.2,29.97,NNW,338,2.2,4.3,11,0.00,,,0.00,WUHU216HW,2013-03-04 02:40:00,
2013-03-03 19:42:00,62.8,7.1,29.97,NNW,338,1.8,4.3,11,0.00,,,0.00,WUHU216HW,2013-03-04 02:42:00,
2013-03-03 19:43:00,62.8,7.1,29.97,NW,315,0.9,4.3,11,0.00,,,0.00,WUHU216HW,2013-03-04 02:43:00,
2013-03-03 19:45:00,62.8,7.1,29.97,NNW,338,1.8,4.3,11,0.00,,,0.00,WUHU216HW,2013-03-04 02:45:00,
2013-03-03 19:46:00,62.8,7.1,29.97,NNW,338,1.8,4.3,11,0.00,,,0.00,WUHU216HW,2013-03-04 02:46:00,
2013-03-03 19:47:00,62.6,6.9,29.97,North,0,2.0,3.4,11,0.00,,,0.00,WUHU216HW,2013-03-04 02:47:00,
2013-03-03 19:48:00,62.6,6.9,29.96,North,0,2.5,3.4,11,0.00,,,0.00,WUHU216HW,2013-03-04 02:48:00,
2013-03-03 19:50:00,62.5,6.9,29.96,North,0,2.0,3.4,11,0.00,,,0.00,WUHU216HW,2013-03-04 02:50:00,
2013-03-03 19:51:00,62.6,6.9,29.96,North,0,1.6,3.4,11,0.00,,,0.00,WUHU216HW,2013-03-04 02:51:00,
2013-03-03 19:52:00,62.5,6.9,29.97,NNW,338,1.3,3.4,11,0.00,,,0.00,WUHU216HW,2013-03-04 02:52:00,
2013-03-03 19:53:00,62.5,6.9,29.97,NNW,338,1.8,3.4,11,0.00,,,0.00,WUHU216HW,2013-03-04 02:53:00,
2013-03-03 19:55:00,62.5,6.9,29.97,North,0,2.0,3.1,11,0.00,,,0.00,WUHU216HW,2013-03-04 02:55:00,
2013-03-03 19:56:00,62.3,6.7,29.97,NNW,338,1.3,3.1,11,0.00,,,0.00,WUHU216HW,2013-03-04 02:56:00,
2013-03-03 19:58:00,62.3,6.7,29.97,NNW,338,2.5,3.1,11,0.00,,,0.00,WUHU216HW,2013-03-04 02:58:00,
2013-03-03 20:01:00,62.3,6.7,29.97,NNW,338,1.3,2.5,11,0.00,,,0.00,WUHU216HW,2013-03-04 03:01:00,
2013-03-03 20:03:00,62.3,6.7,29.97,NW,315,1.8,2.5,11,0.00,,,0.00,WUHU216HW,2013-03-04 03:03:00,
2013-03-03 20:06:00,62.1,8.1,29.97,NW,315,3.1,3.1,12,0.00,,,0.00,WUHU216HW,2013-03-04 03:06:00,
2013-03-03 20:08:00,61.7,7.8,29.97,NW,315,3.4,3.8,12,0.00,,,0.00,WUHU216HW,2013-03-04 03:08:00,
2013-03-03 20:11:00,61.6,7.7,29.98,NNW,338,4.0,4.3,12,0.00,,,0.00,WUHU216HW,2013-03-04 03:11:00,
2013-03-03 20:12:00,61.6,7.7,29.98,NW,315,3.1,4.3,12,0.00,,,0.00,WUHU216HW,2013-03-04 03:12:00,
2013-03-03 20:13:00,61.4,7.6,29.98,NNW,338,4.5,5.1,12,0.00,,,0.00,WUHU216HW,2013-03-04 03:13:00,
2013-03-03 20:16:00,61.2,7.4,29.98,NW,315,4.0,5.1,12,0.00,,,0.00,WUHU216HW,2013-03-04 03:16:00,
2013-03-03 20:17:00,61.2,7.4,29.98,North,0,2.7,5.1,12,0.00,,,0.00,WUHU216HW,2013-03-04 03:17:00,
2013-03-03 20:18:00,61.2,7.4,29.97,NNW,338,1.8,5.1,12,0.00,,,0.00,WUHU216HW,2013-03-04 03:18:00,
2013-03-03 20:19:00,61.2,7.4,29.97,West,270,3.6,5.1,12,0.00,,,0.00,WUHU216HW,2013-03-04 03:19:00,
2013-03-03 20:21:00,61.2,7.4,29.97,West,270,4.7,5.1,12,0.00,,,0.00,WUHU216HW,2013-03-04 03:21:00,
2013-03-03 20:22:00,61.2,8.9,29.97,West,270,4.7,5.1,13,0.00,,,0.00,WUHU216HW,2013-03-04 03:22:00,
2013-03-03 20:23:00,60.8,8.6,29.98,West,270,3.1,4.9,13,0.00,,,0.00,WUHU216HW,2013-03-04 03:23:00,
2013-03-03 20:24:00,60.8,8.6,29.98,WNW,293,2.5,4.7,13,0.00,,,0.00,WUHU216HW,2013-03-04 03:24:00,
2013-03-03 20:26:00,60.1,8.1,29.98,West,270,3.1,4.7,13,0.00,,,0.00,WUHU216HW,2013-03-04 03:26:00,
2013-03-03 20:27:00,60.1,8.1,29.98,WNW,293,3.6,4.7,13,0.00,,,0.00,WUHU216HW,2013-03-04 03:27:00,
2013-03-03 20:28:00,59.8,7.7,29.98,NW,315,2.9,4.7,13,0.00,,,0.00,WUHU216HW,2013-03-04 03:28:00,
2013-03-03 20:29:00,59.8,7.7,29.98,WNW,293,2.2,4.7,13,0.00,,,0.00,WUHU216HW,2013-03-04 03:29:00,
2013-03-03 20:31:00,59.4,7.5,29.98,NW,315,4.0,4.7,13,0.00,,,0.00,WUHU216HW,2013-03-04 03:31:00,
2013-03-03 20:32:00,59.4,7.5,29.98,NW,315,3.8,4.0,13,0.00,,,0.00,WUHU216HW,2013-03-04 03:32:00,
2013-03-03 20:33:00,59.4,7.5,29.98,NW,315,2.7,4.0,13,0.00,,,0.00,WUHU216HW,2013-03-04 03:33:00,
2013-03-03 20:34:00,59.4,7.5,29.98,NNW,338,1.6,4.0,13,0.00,,,0.00,WUHU216HW,2013-03-04 03:34:00,
2013-03-03 20:36:00,59.4,9.0,29.98,West,270,4.5,4.7,14,0.00,,,0.00,WUHU216HW,2013-03-04 03:36:00,
2013-03-03 20:37:00,59.4,10.5,29.98,WSW,248,3.8,4.7,15,0.00,,,0.00,WUHU216HW,2013-03-04 03:37:00,
2013-03-03 20:38:00,59.2,8.8,29.98,West,270,2.0,4.7,14,0.00,,,0.00,WUHU216HW,2013-03-04 03:38:00,
2013-03-03 20:39:00,59.2,8.8,29.98,West,270,2.0,4.7,14,0.00,,,0.00,WUHU216HW,2013-03-04 03:39:00,
2013-03-03 20:41:00,59.2,7.3,29.98,NW,315,3.6,4.7,13,0.00,,,0.00,WUHU216HW,2013-03-04 03:41:00,
2013-03-03 20:42:00,59.0,7.2,29.98,NW,315,2.2,4.7,13,0.00,,,0.00,WUHU216HW,2013-03-04 03:42:00,
2013-03-03 20:44:00,59.0,10.3,29.98,WNW,293,2.0,4.7,15,0.00,,,0.00,WUHU216HW,2013-03-04 03:44:00,
2013-03-03 20:46:00,59.0,8.7,29.98,SW,225,2.0,3.8,14,0.00,,,0.00,WUHU216HW,2013-03-04 03:46:00,
2013-03-03 20:47:00,59.0,10.3,29.98,WSW,248,1.8,3.6,15,0.00,,,0.00,WUHU216HW,2013-03-04 03:47:00,
2013-03-03 20:49:00,59.0,10.3,29.98,West,270,2.0,3.6,15,0.00,,,0.00,WUHU216HW,2013-03-04 03:49:00,
2013-03-03 20:51:00,58.7,10.0,29.98,NW,315,2.5,3.4,15,0.00,,,0.00,WUHU216HW,2013-03-04 03:51:00,
2013-03-03 20:52:00,58.7,10.0,29.98,WNW,293,2.5,2.9,15,0.00,,,0.00,WUHU216HW,2013-03-04 03:52:00,
2013-03-03 20:54:00,58.5,9.8,29.98,West,270,2.2,2.9,15,0.00,,,0.00,WUHU216HW,2013-03-04 03:54:00,
2013-03-03 20:56:00,58.3,9.7,29.98,WSW,248,2.7,2.9,15,0.00,,,0.00,WUHU216HW,2013-03-04 03:56:00,
2013-03-03 20:57:00,58.3,11.3,29.98,WSW,248,2.5,3.4,16,0.00,,,0.00,WUHU216HW,2013-03-04 03:57:00,
2013-03-03 20:59:00,58.0,11.0,29.98,West,270,3.1,4.3,16,0.00,,,0.00,WUHU216HW,2013-03-04 03:59:00,
2013-03-03 21:02:00,57.4,10.5,29.98,WSW,248,2.0,4.3,16,0.00,,,0.00,WUHU216HW,2013-03-04 04:02:00,
2013-03-03 21:04:00,57.2,10.4,29.98,WSW,248,2.9,4.3,16,0.00,,,0.00,WUHU216HW,2013-03-04 04:04:00,
2013-03-03 21:07:00,56.7,11.5,29.98,West,270,4.0,4.5,17,0.00,,,0.00,WUHU216HW,2013-03-04 04:07:00,
2013-03-03 21:09:00,56.3,11.3,29.99,West,270,4.0,4.9,17,0.00,,,0.00,WUHU216HW,2013-03-04 04:09:00,
2013-03-03 21:10:00,56.3,11.3,29.99,WNW,293,3.8,4.9,17,0.00,,,0.00,WUHU216HW,2013-03-04 04:10:00,
2013-03-03 21:12:00,56.2,11.1,29.99,WNW,293,4.3,4.9,17,0.00,,,0.00,WUHU216HW,2013-03-04 04:12:00,
2013-03-03 21:14:00,56.3,11.3,29.98,NW,315,4.0,4.9,17,0.00,,,0.00,WUHU216HW,2013-03-04 04:14:00,
2013-03-03 21:15:00,56.3,11.3,29.98,NW,315,4.0,4.9,17,0.00,,,0.00,WUHU216HW,2013-03-04 04:15:00,
2013-03-03 21:17:00,56.3,11.3,29.98,NNW,338,3.4,4.9,17,0.00,,,0.00,WUHU216HW,2013-03-04 04:17:00,
2013-03-03 21:19:00,56.5,11.3,29.98,NW,315,2.0,4.7,17,0.00,,,0.00,WUHU216HW,2013-03-04 04:19:00,
2013-03-03 21:20:00,56.5,11.3,29.98,NW,315,2.5,4.7,17,0.00,,,0.00,WUHU216HW,2013-03-04 04:20:00,
2013-03-03 21:22:00,56.7,11.5,29.98,WNW,293,1.8,4.7,17,0.00,,,0.00,WUHU216HW,2013-03-04 04:22:00,
2013-03-03 21:24:00,56.9,11.6,29.98,West,270,3.1,4.7,17,0.00,,,0.00,WUHU216HW,2013-03-04 04:24:00,
2013-03-03 21:25:00,56.9,11.6,29.98,West,270,3.4,4.7,17,0.00,,,0.00,WUHU216HW,2013-03-04 04:25:00,
2013-03-03 21:27:00,56.9,11.6,29.97,WNW,293,2.5,4.7,17,0.00,,,0.00,WUHU216HW,2013-03-04 04:27:00,
2013-03-03 21:28:00,56.9,11.6,29.97,WNW,293,2.0,4.7,17,0.00,,,0.00,WUHU216HW,2013-03-04 04:28:00,
2013-03-03 21:29:00,56.9,11.6,29.97,West,270,2.7,3.6,17,0.00,,,0.00,WUHU216HW,2013-03-04 04:29:00,
2013-03-03 21:30:00,56.9,11.6,29.97,WNW,293,2.5,3.6,17,0.00,,,0.00,WUHU216HW,2013-03-04 04:30:00,
2013-03-03 21:32:00,56.7,11.5,29.97,WNW,293,3.6,3.6,17,0.00,,,0.00,WUHU216HW,2013-03-04 04:32:00,
2013-03-03 21:33:00,56.7,11.5,29.97,NW,315,3.4,3.6,17,0.00,,,0.00,WUHU216HW,2013-03-04 04:33:00,
2013-03-03 21:35:00,56.7,11.5,29.97,WNW,293,3.1,3.6,17,0.00,,,0.00,WUHU216HW,2013-03-04 04:35:00,
2013-03-03 21:38:00,56.9,11.6,29.97,South,180,3.8,3.8,17,0.00,,,0.00,WUHU216HW,2013-03-04 04:38:00,
2013-03-03 21:40:00,56.9,11.6,29.97,SSW,203,4.0,5.1,17,0.00,,,0.00,WUHU216HW,2013-03-04 04:40:00,
2013-03-03 21:43:00,56.7,11.5,29.97,SSW,203,1.3,5.4,17,0.00,,,0.00,WUHU216HW,2013-03-04 04:43:00,
2013-03-03 21:45:00,56.5,11.3,29.97,SE,135,1.1,5.4,17,0.00,,,0.00,WUHU216HW,2013-03-04 04:45:00,
2013-03-03 21:48:00,56.5,11.3,29.96,SSW,203,3.1,5.4,17,0.00,,,0.00,WUHU216HW,2013-03-04 04:48:00,
2013-03-03 21:50:00,56.3,11.3,29.96,South,180,4.9,5.4,17,0.00,,,0.00,WUHU216HW,2013-03-04 04:50:00,
2013-03-03 21:53:00,56.2,11.1,29.96,South,180,5.6,6.0,17,0.00,,,0.00,WUHU216HW,2013-03-04 04:53:00,
2013-03-03 21:55:00,56.2,11.1,29.96,SSE,158,3.6,6.9,17,0.00,,,0.00,WUHU216HW,2013-03-04 04:55:00,
2013-03-03 21:58:00,56.3,11.3,29.96,South,180,4.0,6.9,17,0.00,,,0.00,WUHU216HW,2013-03-04 04:58:00,
2013-03-03 22:00:00,56.5,11.3,29.96,SW,225,1.8,6.9,17,0.00,,,0.00,WUHU216HW,2013-03-04 05:00:00,
2013-03-03 22:05:00,56.5,11.3,29.97,SSE,158,1.8,4.0,17,0.00,,,0.00,WUHU216HW,2013-03-04 05:05:00,
2013-03-03 22:10:00,56.5,12.9,29.97,WNW,293,2.9,2.9,18,0.00,,,0.00,WUHU216HW,2013-03-04 05:10:00,
2013-03-03 22:11:00,56.5,12.9,29.97,NNW,338,1.8,2.9,18,0.00,,,0.00,WUHU216HW,2013-03-04 05:11:00,
2013-03-03 22:15:00,56.3,12.8,29.97,NW,315,1.8,3.8,18,0.00,,,0.00,WUHU216HW,2013-03-04 05:15:00,
2013-03-03 22:16:00,56.2,12.6,29.97,NNW,338,0.4,3.8,18,0.00,,,0.00,WUHU216HW,2013-03-04 05:16:00,
2013-03-03 22:20:00,56.2,11.1,29.96,NNE,23,2.5,3.8,17,0.00,,,0.00,WUHU216HW,2013-03-04 05:20:00,
2013-03-03 22:21:00,56.2,11.1,29.96,NE,45,2.2,3.8,17,0.00,,,0.00,WUHU216HW,2013-03-04 05:21:00,
2013-03-03 22:25:00,56.3,11.3,29.96,ESE,113,1.8,3.8,17,0.00,,,0.00,WUHU216HW,2013-03-04 05:25:00,
2013-03-03 22:26:00,56.3,11.3,29.96,East,90,1.1,3.8,17,0.00,,,0.00,WUHU216HW,2013-03-04 05:26:00,
2013-03-03 22:30:00,56.3,11.3,29.96,SE,135,0.4,3.4,17,0.00,,,0.00,WUHU216HW,2013-03-04 05:30:00,
2013-03-03 22:31:00,56.3,11.3,29.96,SE,135,1.1,3.4,17,0.00,,,0.00,WUHU216HW,2013-03-04 05:31:00,
2013-03-03 22:35:00,56.3,11.3,29.96,WSW,248,0.0,3.4,17,0.00,,,0.00,WUHU216HW,2013-03-04 05:35:00,
2013-03-03 22:36:00,56.3,11.3,29.96,WSW,248,0.0,3.4,17,0.00,,,0.00,WUHU216HW,2013-03-04 05:36:00,
2013-03-03 22:37:00,56.3,11.3,29.96,WSW,248,0.9,3.4,17,0.00,,,0.00,WUHU216HW,2013-03-04 05:37:00,
2013-03-03 22:41:00,56.5,11.3,29.97,SW,225,1.8,2.5,17,0.00,,,0.00,WUHU216HW,2013-03-04 05:41:00,
2013-03-03 22:42:00,56.5,12.9,29.97,SW,225,2.0,2.5,18,0.00,,,0.00,WUHU216HW,2013-03-04 05:42:00,
2013-03-03 22:46:00,56.3,11.3,29.96,SSW,203,0.0,2.5,17,0.00,,,0.00,WUHU216HW,2013-03-04 05:46:00,
2013-03-03 22:47:00,56.3,11.3,29.96,SSW,203,0.0,2.5,17,0.00,,,0.00,WUHU216HW,2013-03-04 05:47:00,
2013-03-03 22:51:00,56.3,11.3,29.96,NNE,23,0.4,2.5,17,0.00,,,0.00,WUHU216HW,2013-03-04 05:51:00,
2013-03-03 22:52:00,56.3,11.3,29.96,NNE,23,0.0,1.8,17,0.00,,,0.00,WUHU216HW,2013-03-04 05:52:00,
2013-03-03 22:56:00,56.2,12.6,29.96,NNW,338,1.1,4.5,18,0.00,,,0.00,WUHU216HW,2013-03-04 05:56:00,
2013-03-03 22:57:00,56.2,12.6,29.96,WSW,248,1.8,4.5,18,0.00,,,0.00,WUHU216HW,2013-03-04 05:57:00,
2013-03-03 23:01:00,56.3,11.3,29.96,SSE,158,1.8,4.5,17,0.00,,,0.00,WUHU216HW,2013-03-04 06:01:00,
2013-03-03 23:02:00,56.5,11.3,29.96,SSE,158,2.9,4.5,17,0.00,,,0.00,WUHU216HW,2013-03-04 06:02:00,
2013-03-03 23:06:00,56.5,11.3,29.96,NNE,23,1.1,3.1,17,0.00,,,0.00,WUHU216HW,2013-03-04 06:06:00,
2013-03-03 23:07:00,56.5,11.3,29.96,NNE,23,0.7,3.1,17,0.00,,,0.00,WUHU216HW,2013-03-04 06:07:00,
2013-03-03 23:11:00,56.3,11.3,29.95,WSW,248,1.1,3.1,17,0.00,,,0.00,WUHU216HW,2013-03-04 06:11:00,
2013-03-03 23:12:00,56.3,11.3,29.95,West,270,2.9,3.4,17,0.00,,,0.00,WUHU216HW,2013-03-04 06:12:00,
2013-03-03 23:16:00,56.2,11.1,29.95,NNE,23,0.4,3.4,17,0.00,,,0.00,WUHU216HW,2013-03-04 06:16:00,
2013-03-03 23:17:00,56.2,11.1,29.95,North,0,1.6,3.4,17,0.00,,,0.00,WUHU216HW,2013-03-04 06:17:00,
2013-03-03 23:18:00,56.2,11.1,29.95,North,0,1.6,3.4,17,0.00,,,0.00,WUHU216HW,2013-03-04 06:18:00,
2013-03-03 23:21:00,56.2,11.1,29.94,WSW,248,0.0,3.4,17,0.00,,,0.00,WUHU216HW,2013-03-04 06:21:00,
2013-03-03 23:22:00,56.2,11.1,29.94,WSW,248,0.0,3.4,17,0.00,,,0.00,WUHU216HW,2013-03-04 06:22:00,
2013-03-03 23:23:00,56.2,11.1,29.94,West,270,0.4,2.7,17,0.00,,,0.00,WUHU216HW,2013-03-04 06:23:00,
2013-03-03 23:26:00,56.2,11.1,29.94,SSW,203,1.8,1.8,17,0.00,,,0.00,WUHU216HW,2013-03-04 06:26:00,
2013-03-03 23:27:00,56.2,11.1,29.94,SSW,203,2.2,2.2,17,0.00,,,0.00,WUHU216HW,2013-03-04 06:27:00,
2013-03-03 23:28:00,56.2,11.1,29.94,SSW,203,1.1,2.2,17,0.00,,,0.00,WUHU216HW,2013-03-04 06:28:00,
2013-03-03 23:32:00,56.2,11.1,29.94,NW,315,0.9,2.2,17,0.00,,,0.00,WUHU216HW,2013-03-04 06:32:00,
2013-03-03 23:33:00,56.2,11.1,29.94,SW,225,1.6,2.2,17,0.00,,,0.00,WUHU216HW,2013-03-04 06:33:00,
2013-03-03 23:37:00,56.2,11.1,29.93,NNE,23,1.3,2.2,17,0.00,,,0.00,WUHU216HW,2013-03-04 06:37:00,
2013-03-03 23:38:00,56.2,11.1,29.93,NE,45,2.7,2.7,17,0.00,,,0.00,WUHU216HW,2013-03-04 06:38:00,
2013-03-03 23:42:00,56.2,11.1,29.92,NNE,23,3.1,3.6,17,0.00,,,0.00,WUHU216HW,2013-03-04 06:42:00,
2013-03-03 23:44:00,56.3,11.3,29.92,NNE,23,1.3,3.6,17,0.00,,,0.00,WUHU216HW,2013-03-04 06:44:00,
2013-03-03 23:47:00,56.3,11.3,29.92,SW,225,2.7,3.6,17,0.00,,,0.00,WUHU216HW,2013-03-04 06:47:00,
2013-03-03 23:49:00,56.2,11.1,29.92,SW,225,2.5,3.6,17,0.00,,,0.00,WUHU216HW,2013-03-04 06:49:00,
2013-03-03 23:52:00,56.3,11.3,29.92,West,270,1.6,3.1,17,0.00,,,0.00,WUHU216HW,2013-03-04 06:52:00,
2013-03-03 23:54:00,56.5,11.3,29.92,ENE,68,2.7,3.8,17,0.00,,,0.00,WUHU216HW,2013-03-04 06:54:00,
2013-03-03 23:57:00,56.5,11.3,29.92,East,90,5.4,5.8,17,0.00,,,0.00,WUHU216HW,2013-03-04 06:57:00,
2013-03-03 23:58:00,56.5,11.3,29.92,East,90,5.4,5.8,17,0.00,,,0.00,WUHU216HW,2013-03-04 06:58:00,
2013-03-03 23:59:00,56.5,11.3,29.92,East,90,3.8,5.8,17,0.00,,,0.00,WUHU216HW,2013-03-04 06:59:00,